GFSFLT2_con_lsi_000.txt.gz
Lid_Strength_Index
5 5 6 8 8 6 9 8 10 9 8 6 5 5 4 4 4 4 4 3 3 2 2 2 2 2 1 1 1 1 1 0
6 5 5 6 5 9 9 14 14 10 9 9 7 6 4 4 4 4 3 3 3 3 2 2 1 1 1 1 1 1 0 0
6 7 7 7 8 7 7 9 12 13 10 5 6 5 5 4 4 3 3 3 3 2 2 2 1 1 1 1 1 1 1 1
8 6 5 6 7 7 10 11 9 10 10 5 4 4 4 4 3 3 3 3 3 2 2 2 2 1 1 1 1 1 1 0
9 7 6 7 7 6 7 7 10 11 10 5 4 4 4 4 3 3 3 3 3 3 3 2 2 2 1 1 1 1 1 1
10 9 7 8 7 7 7 9 9 9 8 6 5 5 4 3 3 3 4 3 3 3 3 2 2 2 2 1 1 1 1 1
7 7 7 7 7 7 8 7 9 8 8 6 5 4 4 3 3 3 4 4 3 3 3 2 2 2 2 1 1 1 1 1
9 7 7 8 7 7 7 7 7 7 7 5 4 4 4 3 3 4 4 4 3 3 3 3 2 2 2 1 1 1 1 1
11 8 8 10 8 7 7 6 6 8 6 5 5 4 4 4 3 4 4 4 3 3 3 2 2 2 2 2 1 1 1 1
11 10 14 8 5 6 6 6 5 5 5 4 4 3 3 3 3 3 3 3 3 3 2 2 2 2 1 1 1 1 2 1
12 12 10 8 7 6 7 7 5 5 5 4 4 4 5 3 3 3 3 2 2 2 2 2 2 1 1 2 2 2 2 2
11 13 14 10 8 6 6 10 5 4 5 5 4 7 5 4 3 3 2 2 2 2 2 2 2 1 2 2 2 2 2 1
11 12 10 8 7 6 12 9 4 4 5 5 6 5 4 3 3 2 2 2 2 2 2 2 1 1 2 2 2 1 1 1
11 13 14 7 7 10 8 5 5 5 5 5 5 4 4 4 3 3 3 2 2 2 2 1 1 1 2 2 1 1 1 2
9 9 7 6 7 5 4 5 5 5 4 4 4 4 4 4 3 3 2 2 2 2 2 2 1 1 2 2 1 1 2 2
9 8 7 6 5 4 4 4 4 3 3 3 4 4 4 3 3 3 3 2 2 2 2 3 2 2 2 1 1 1 2 2
9 8 6 6 5 5 4 4 4 3 3 4 4 4 4 4 3 3 3 2 2 2 2 3 2 2 1 1 1 2 2 2
10 7 8 8 6 5 5 4 4 4 4 3 3 4 4 4 3 3 3 2 2 2 2 2 2 2 1 1 1 2 3 2
7 5 7 6 6 6 6 5 5 5 4 4 3 3 2 3 3 4 3 3 3 2 2 2 2 2 1 1 1 1 2 2

GFSFLT2_con_lsi_003.txt.gz
Lid_Strength_Index
5 5 5 7 8 6 9 8 10 9 7 6 5 5 4 4 3 3 3 3 3 2 2 2 2 2 1 1 1 1 1 1
5 5 5 6 5 9 8 13 13 10 9 9 7 6 5 4 4 3 3 3 3 2 2 2 2 1 1 1 1 1 1 1
6 7 8 7 7 7 7 9 12 12 10 5 5 5 5 4 4 3 3 3 3 2 2 2 1 1 1 1 1 1 1 1
8 5 5 6 7 7 10 11 9 10 10 5 4 4 4 4 3 3 2 2 3 2 2 2 2 2 1 1 1 1 1 1
9 7 6 7 7 6 7 7 10 11 10 5 4 4 4 4 3 3 2 2 2 2 2 2 2 2 2 1 1 1 1 1
10 9 7 8 7 7 7 9 9 9 8 6 5 5 4 3 3 3 2 3 2 3 2 2 2 2 2 1 1 1 1 1
7 7 7 7 7 7 8 7 9 8 8 6 5 5 4 3 3 3 3 3 3 3 3 2 2 2 2 1 1 1 1 1
8 7 7 8 7 7 7 7 7 7 7 5 4 4 4 3 3 3 3 2 3 3 3 3 2 2 2 2 1 1 1 1
11 8 8 10 8 7 7 6 6 8 6 5 5 4 4 4 3 3 3 3 2 3 3 2 2 2 2 2 1 1 1 1
11 9 14 8 6 6 6 6 5 5 5 4 4 4 3 3 3 3 3 2 2 2 2 2 2 2 1 1 1 2 2 2
12 12 11 9 8 8 9 8 5 5 5 4 4 3 4 3 2 2 2 2 2 2 2 2 2 1 2 2 2 2 2 2
10 13 14 8 7 6 6 10 5 4 5 5 4 6 5 3 2 2 2 2 2 2 2 2 2 1 2 2 2 2 2 2
11 12 9 7 6 5 11 10 6 5 5 5 5 4 4 3 3 2 2 2 2 2 2 2 1 2 2 2 2 2 1 1
10 11 13 6 6 9 7 5 5 5 5 5 3 4 4 4 3 3 2 2 2 2 2 2 1 2 2 2 1 1 1 1
8 9 7 5 6 5 4 5 5 5 4 4 4 4 4 4 3 3 3 2 2 2 2 2 1 1 2 2 1 1 2 2
8 8 7 6 5 4 4 4 4 3 4 4 4 4 4 3 3 3 3 2 2 2 3 3 1 1 1 1 1 1 2 2
9 7 6 6 5 4 4 3 4 4 4 5 4 4 4 4 4 3 3 2 2 2 3 3 2 2 1 1 1 2 2 2
10 6 7 6 4 4 4 4 4 4 4 3 4 4 4 4 3 3 3 2 3 2 2 2 2 2 1 1 1 2 3 2
8 5 5 4 4 5 5 5 4 4 4 3 3 3 3 3 3 4 2 2 2 2 2 2 2 2 1 1 1 2 2 2

GFSFLT2_con_lsi_006.txt.gz
Lid_Strength_Index
5 5 6 7 9 7 9 9 11 10 8 6 5 6 6 5 4 4 4 4 3 3 3 3 2 2 2 2 2 2 1 1
6 5 6 7 6 9 9 14 14 11 10 10 7 7 6 6 5 4 3 4 3 3 3 2 2 2 2 2 2 2 1 1
6 7 8 7 8 8 8 9 12 13 11 6 7 6 6 5 4 4 3 4 3 3 2 2 2 2 2 2 2 2 1 1
8 6 5 6 7 8 10 11 9 10 10 5 5 5 4 4 4 3 3 3 3 3 3 3 2 2 2 2 2 2 1 1
10 8 6 7 7 7 7 8 10 11 10 5 4 4 5 4 4 4 1 3 3 3 3 3 3 2 2 2 2 1 1 1
11 9 7 8 8 7 8 10 10 9 9 7 6 6 5 4 4 3 2 4 3 3 3 3 2 2 2 2 2 1 2 2
8 7 7 8 8 8 8 8 10 8 8 7 6 5 5 4 3 3 3 4 3 3 3 3 3 3 2 2 2 1 2 2
9 7 8 8 7 7 7 7 8 7 8 5 4 4 5 4 4 4 4 3 4 3 3 3 3 3 2 2 2 1 2 2
11 8 8 10 8 7 7 7 7 9 7 5 5 5 5 5 4 4 4 3 3 3 3 3 3 2 2 2 2 2 2 2
11 10 14 8 6 6 7 6 6 6 5 5 5 4 4 3 4 4 3 3 3 2 3 2 2 2 2 2 2 2 2 2
12 12 10 8 7 7 7 8 5 6 5 5 4 4 4 3 3 3 3 3 2 2 2 2 2 2 2 2 2 2 2 2
11 13 15 9 7 5 6 11 6 6 6 6 5 7 5 3 3 3 2 2 2 2 2 2 2 2 2 3 3 3 2 2
11 12 10 8 6 5 12 10 6 6 6 6 6 6 4 3 3 3 2 2 0 2 3 3 2 2 3 3 3 2 2 2
11 13 15 6 7 10 7 5 5 5 5 5 4 4 4 3 3 3 3 2 2 3 3 2 2 2 3 3 2 2 2 2
9 10 6 5 6 5 4 5 5 5 4 4 4 4 4 4 3 3 2 2 2 3 3 2 2 2 3 3 2 2 2 2
8 7 7 6 5 4 4 5 5 5 5 5 5 4 4 4 3 3 3 3 3 3 3 3 2 2 2 2 2 2 2 2
9 8 7 6 5 5 5 4 4 4 4 5 5 5 5 5 4 4 4 4 3 3 3 3 3 2 2 2 2 2 2 2
12 7 7 7 5 4 5 5 4 4 4 4 5 5 5 5 4 4 4 4 4 3 3 3 2 2 2 2 2 2 3 3
9 6 6 5 4 4 4 4 3 4 4 4 4 4 4 4 4 4 4 3 3 3 3 3 3 2 2 2 2 2 3 3

GFSFLT2_con_lsi_009.txt.gz
Lid_Strength_Index
7 6 8 10 11 9 14 13 14 12 11 9 7 7 6 6 6 5 4 4 4 3 3 3 3 3 2 2 2 2 2 1
7 7 7 9 9 12 11 15 15 12 12 12 10 8 7 7 6 5 5 4 4 3 3 3 3 2 2 2 2 2 2 1
8 9 10 10 11 11 12 11 14 15 12 10 9 8 8 6 5 5 5 4 4 3 3 3 2 2 2 2 2 2 2 1
11 8 7 8 10 11 13 14 13 13 12 7 8 7 6 6 5 5 5 4 4 3 3 3 3 3 3 2 2 2 2 2
12 10 9 10 9 10 10 12 13 14 12 7 7 7 7 7 5 5 5 4 4 4 4 3 3 3 3 2 2 2 2 2
13 12 11 11 9 9 10 12 13 12 12 10 9 7 7 6 6 5 5 5 4 4 4 3 3 3 3 2 2 2 2 2
10 9 9 9 9 9 11 10 12 12 11 10 8 7 7 6 6 5 5 5 5 4 4 4 3 3 3 2 2 2 2 2
11 9 9 9 9 9 9 9 10 9 10 8 7 7 7 6 6 6 6 5 5 4 4 4 3 3 3 3 2 2 2 2
13 10 10 12 10 9 9 9 9 11 9 8 7 8 7 6 5 6 5 5 5 5 4 3 3 3 3 3 2 2 2 2
13 13 17 10 8 7 8 8 8 8 8 7 7 6 6 6 6 6 5 5 4 4 4 4 3 3 2 2 2 2 3 3
14 14 12 10 8 9 10 10 8 9 8 7 6 7 8 6 5 5 4 5 4 4 3 3 3 2 2 3 3 3 3 3
13 15 16 11 8 6 8 13 8 8 8 8 7 11 9 6 6 5 4 4 5 3 3 3 3 2 3 3 3 3 3 2
13 13 12 9 7 6 14 14 8 7 7 8 9 8 6 5 6 5 5 5 4 3 3 3 3 2 3 3 3 2 2 2
13 15 16 7 8 11 10 8 8 7 7 8 7 6 6 5 6 6 3 5 4 4 4 3 3 3 3 3 3 2 2 2
11 12 8 7 8 7 7 8 7 7 7 6 7 7 6 6 6 5 5 5 4 4 4 4 3 3 4 3 3 2 3 3
11 8 8 7 6 6 6 7 6 6 6 6 7 6 6 6 5 5 5 5 4 4 4 4 3 3 3 3 2 3 3 3
11 9 8 8 7 6 6 5 5 5 5 6 6 7 6 7 7 6 5 5 4 4 4 4 3 3 3 2 2 3 4 4
13 9 9 8 6 5 6 6 5 6 6 5 6 7 7 7 7 6 6 5 4 4 4 4 3 3 3 2 3 3 3 3
9 6 7 6 6 5 6 5 5 5 5 6 5 6 5 6 6 6 6 6 4 4 4 4 3 3 2 2 2 3 3 3

GFSFLT2_con_lsi_012.txt.gz
Lid_Strength_Index
9 8 9 11 14 11 15 15 16 15 13 10 8 7 7 6 6 5 5 5 4 3 3 3 3 3 2 2 2 2 2 1
9 8 8 10 10 13 16 16 16 16 15 12 10 9 7 7 6 5 5 5 4 3 3 3 2 2 2 2 2 2 2 1
11 11 11 11 12 15 13 14 15 18 14 10 10 9 8 7 6 5 5 5 4 4 3 3 2 2 2 2 2 2 2 2
12 10 9 9 11 12 13 16 15 13 14 9 8 8 7 6 5 5 4 5 4 4 3 3 3 3 3 2 2 2 2 2
15 12 12 11 10 11 15 14 14 15 15 9 8 9 7 7 6 6 6 6 5 4 4 3 3 3 3 3 2 2 2 2
15 13 12 13 11 10 11 13 14 14 14 11 10 9 9 6 6 6 5 5 5 4 4 3 3 3 3 3 2 2 2 2
13 11 10 10 11 10 12 12 13 12 13 12 10 11 9 8 6 7 5 5 4 4 4 4 3 3 3 3 2 2 2 2
14 11 10 11 9 10 10 10 11 12 13 10 9 8 8 7 6 6 6 5 5 4 4 4 3 3 3 3 3 2 2 3
18 12 11 12 11 10 10 10 10 12 11 10 10 8 8 8 8 7 6 5 5 4 4 3 3 3 3 3 2 2 3 2
17 14 16 12 8 8 10 9 9 9 9 9 8 7 7 6 7 6 6 5 4 4 4 3 3 3 2 2 2 3 3 3
16 16 13 10 9 10 11 11 8 9 8 8 8 8 8 6 7 6 6 5 6 4 3 3 3 2 3 3 3 3 3 3
13 16 17 12 9 7 8 15 8 8 8 8 7 10 10 6 6 6 6 6 5 5 4 3 3 2 3 3 3 3 3 3
13 15 13 10 8 7 13 12 8 8 8 8 9 8 7 6 6 5 5 4 5 6 5 3 3 3 3 3 3 3 2 2
14 16 18 8 8 11 10 9 8 8 8 8 8 7 7 6 6 5 5 5 4 6 4 3 3 3 3 4 2 2 2 2
12 14 9 8 9 7 7 8 8 8 7 7 7 7 6 6 6 5 5 5 4 4 4 4 3 3 3 3 2 2 3 3
11 9 9 8 7 7 6 7 6 6 6 6 7 7 8 7 6 6 7 8 7 6 4 5 4 3 3 3 2 3 3 3
11 9 9 8 7 7 6 6 6 6 6 6 7 7 7 8 8 8 8 7 7 8 9 10 3 3 3 3 2 3 3 3
13 9 9 8 6 6 6 6 6 7 7 6 6 7 7 8 8 8 7 7 8 8 8 6 7 5 3 2 2 3 3 3
9 7 7 6 6 6 7 6 6 7 6 6 5 6 7 7 7 6 5 4 4 4 5 5 3 4 3 3 3 3 3 4

GFSFLT2_con_lsi_015.txt.gz
Lid_Strength_Index
9 10 9 13 14 11 16 17 18 15 14 11 9 9 7 6 6 5 5 4 4 4 3 3 3 3 2 2 2 2 2 2
10 9 10 11 11 14 18 17 18 17 15 14 12 10 8 7 6 6 5 4 4 4 3 3 2 2 2 2 2 2 2 1
12 13 13 14 13 16 15 16 17 17 15 11 10 10 9 8 6 6 5 5 4 4 3 3 2 2 2 2 2 2 2 1
14 12 10 11 11 14 15 17 17 15 15 11 8 8 9 8 7 5 5 4 4 4 4 3 3 3 3 2 2 2 2 2
17 15 13 13 12 12 13 16 14 16 16 11 9 9 8 8 7 6 5 4 4 4 5 4 3 3 3 2 2 2 2 2
18 17 14 15 12 11 13 15 14 14 14 13 11 10 9 8 7 6 5 5 5 5 5 4 3 3 3 3 2 2 2 2
16 14 13 13 13 11 14 13 14 13 15 12 11 10 9 8 9 6 6 6 6 5 4 4 3 3 3 3 2 2 2 2
17 13 13 13 12 12 12 12 12 12 15 11 9 10 10 9 9 8 6 7 7 5 5 4 3 3 3 3 3 2 2 3
19 15 15 15 13 12 11 11 11 13 12 11 11 10 10 9 8 8 8 7 6 6 5 3 3 3 3 3 2 2 3 2
19 17 18 13 10 9 11 11 11 12 11 10 9 8 9 9 8 8 7 6 5 4 4 3 3 3 2 2 3 3 3 3
19 18 15 12 10 10 11 12 9 11 10 10 9 9 10 8 7 7 6 6 5 3 3 3 3 3 3 3 3 3 3 3
17 18 18 13 9 8 8 12 8 7 9 9 10 12 9 6 5 5 6 7 6 4 4 4 3 3 3 3 3 4 3 3
16 17 14 10 9 8 14 12 8 8 8 8 10 10 8 6 6 5 5 5 6 7 5 4 4 3 3 3 4 3 2 2
14 16 18 9 9 13 11 8 8 8 8 8 8 7 7 6 6 5 5 5 4 4 5 6 5 4 4 4 3 2 2 2
13 13 9 8 8 7 7 8 8 8 7 7 7 7 7 7 6 6 7 7 7 6 6 5 4 4 4 3 2 2 3 3
12 10 9 8 7 6 7 7 7 6 7 7 7 7 8 7 7 7 7 7 6 6 7 9 6 6 6 3 4 3 3 3
11 9 8 8 7 6 7 7 7 7 7 7 7 8 8 8 8 8 8 8 8 9 8 8 7 6 5 8 7 4 3 3
12 9 9 9 7 6 7 8 9 7 7 7 7 8 8 8 8 8 7 6 6 6 7 7 6 4 5 5 4 5 4 3
9 7 7 6 6 6 7 7 6 6 7 7 7 7 7 7 7 6 5 4 4 5 4 4 4 3 3 2 4 7 4 3

GFSFLT2_con_lsi_018.txt.gz
Lid_Strength_Index
10 11 10 14 14 13 17 17 18 16 14 11 9 9 8 6 6 6 5 5 4 4 3 3 3 3 2 2 2 2 2 1
10 10 11 12 12 15 18 19 20 17 16 14 12 10 9 8 7 6 5 4 4 4 3 3 3 2 2 2 2 2 2 1
13 13 12 14 15 16 15 17 19 19 16 12 10 10 9 9 7 6 5 5 4 4 3 3 2 2 2 2 2 2 2 1
15 13 11 10 12 15 15 18 18 18 16 11 10 8 8 8 7 6 5 4 4 3 3 3 3 3 3 2 2 2 2 2
18 15 14 15 13 13 14 16 16 17 16 9 10 9 8 8 8 8 6 5 4 4 4 3 3 3 3 2 2 2 2 2
19 18 15 16 14 14 14 15 15 15 14 13 11 10 9 8 8 7 7 6 5 4 4 3 3 3 3 2 2 2 2 2
16 15 14 14 14 13 15 14 15 13 13 12 11 10 9 8 8 7 7 6 5 5 4 4 3 3 3 2 2 2 2 2
17 14 14 15 14 13 13 13 14 13 14 12 10 9 9 9 8 8 7 5 5 4 4 4 4 3 3 3 2 2 2 3
20 16 16 17 14 13 13 13 13 14 12 11 11 11 10 9 8 8 8 7 5 4 4 4 3 3 3 3 2 2 3 2
19 18 20 15 12 10 12 11 11 11 11 10 9 8 8 8 7 8 7 6 6 5 4 4 4 3 2 2 3 3 3 3
19 19 16 14 10 11 12 12 10 11 10 10 9 9 9 8 8 7 7 7 6 5 4 4 4 2 3 3 3 3 3 3
19 20 20 14 9 8 9 15 9 8 10 10 10 13 11 7 6 7 6 6 5 4 3 3 3 3 3 3 3 3 3 3
17 18 16 11 9 8 15 14 9 8 9 10 10 9 7 6 6 5 5 4 4 3 5 5 3 3 4 3 4 3 2 2
17 18 18 8 9 13 10 8 8 8 8 8 7 7 6 6 6 5 5 5 4 4 4 3 3 3 4 4 2 2 2 2
13 14 10 8 8 7 7 8 7 8 7 7 7 7 6 7 7 7 7 7 7 6 6 6 4 3 4 3 2 2 2 3
12 10 9 8 7 6 6 8 7 7 7 7 7 6 7 7 7 7 7 7 7 7 7 6 4 3 4 4 2 3 3 3
11 9 8 8 7 6 6 7 7 7 8 8 8 9 8 8 7 6 5 5 5 6 6 5 4 3 2 2 3 3 3 3
12 9 9 9 7 6 6 7 7 8 8 8 8 8 6 6 5 5 5 4 4 4 4 4 3 3 2 2 2 3 3 3
9 7 7 6 6 5 6 6 6 6 6 7 6 5 5 5 5 5 4 4 4 4 4 3 3 3 3 2 2 3 3 3

GFSFLT2_con_lsi_021.txt.gz
Lid_Strength_Index
8 8 8 10 11 8 11 12 12 11 9 7 6 6 5 5 5 5 4 4 4 3 3 3 2 2 2 2 2 1 1 1
8 8 8 9 7 11 11 14 15 12 12 10 8 7 6 6 5 4 4 4 3 3 3 2 2 2 2 1 2 1 1 1
9 10 10 11 11 10 10 11 14 15 12 7 7 6 6 6 5 4 4 4 3 3 3 2 2 2 2 2 2 2 1 1
11 9 7 8 9 9 12 13 12 12 12 7 6 5 5 5 5 4 4 3 3 3 2 2 2 2 2 2 2 2 1 1
12 10 10 10 9 9 9 9 12 14 12 7 6 6 4 4 4 4 4 4 3 3 3 3 2 2 2 2 2 1 1 1
13 12 11 12 11 10 10 12 12 12 11 8 7 6 5 4 4 4 3 3 3 3 3 3 2 2 2 2 1 1 1 2
13 13 13 13 12 12 12 11 12 11 10 9 7 6 5 4 4 4 4 4 3 3 3 3 3 2 2 2 2 1 2 2
14 13 13 13 12 12 12 11 11 11 11 8 7 5 5 4 4 4 4 4 4 3 3 3 3 3 2 2 2 1 2 2
16 13 13 15 12 12 11 10 10 12 10 8 7 6 5 4 4 4 4 3 3 3 3 3 3 2 2 2 1 2 2 2
16 14 18 12 9 9 9 9 9 9 8 7 7 5 4 3 4 4 3 3 3 2 2 2 2 2 1 2 2 2 2 2
17 16 14 12 11 9 11 9 7 8 7 7 6 6 5 3 3 3 3 3 2 2 2 2 2 2 2 2 2 2 2 2
15 18 18 12 9 7 8 12 8 8 8 7 7 9 6 3 3 3 3 3 2 2 2 2 2 1 2 2 2 3 2 2
16 17 14 10 7 7 14 11 8 7 8 8 9 6 4 4 3 3 3 2 2 2 2 2 2 2 3 2 3 2 2 1
15 17 18 9 8 10 9 7 7 7 7 7 6 6 4 4 5 4 4 3 3 3 3 2 2 2 3 3 1 1 1 2
12 14 10 8 7 6 6 7 6 6 6 6 6 6 5 5 5 4 4 4 3 3 3 3 2 2 3 2 1 1 2 2
10 9 9 8 6 5 5 6 5 5 6 6 6 6 5 5 4 4 3 3 3 3 3 3 2 2 2 2 2 2 2 2
9 8 7 6 5 5 5 5 5 5 5 5 5 5 5 5 5 4 4 4 3 3 3 3 2 2 2 1 1 2 2 2
11 6 7 7 5 4 5 5 5 5 5 5 5 6 5 6 5 4 4 4 4 3 3 3 2 2 2 1 1 2 2 2
8 5 5 5 4 4 5 5 5 5 5 5 5 5 5 5 4 4 4 4 4 4 3 3 3 2 2 1 1 2 2 2

GFSFLT2_con_lsi_024.txt.gz
Lid_Strength_Index
7 6 6 8 9 7 9 9 10 9 8 6 5 5 4 4 4 3 4 3 3 3 2 2 2 2 1 1 1 1 1 1
7 6 6 7 6 9 9 12 13 10 9 9 7 6 5 5 4 3 3 3 3 3 2 2 2 1 1 1 1 1 1 1
8 9 9 9 9 8 8 9 12 12 10 6 6 5 5 4 4 3 3 3 3 2 2 2 1 1 1 1 1 1 1 1
10 7 7 7 8 8 10 11 10 10 9 6 5 4 4 4 3 3 2 2 2 2 2 2 2 2 2 1 1 1 1 1
10 9 7 8 8 7 7 7 10 11 9 5 4 5 4 4 3 3 3 3 2 2 2 2 2 2 2 1 1 1 1 1
11 10 8 9 9 8 8 10 10 9 8 7 6 5 4 4 4 4 3 2 2 2 2 2 2 2 2 1 1 1 1 1
8 10 10 9 9 8 9 8 10 8 8 7 6 5 4 3 3 5 4 4 3 2 2 2 2 1 2 1 1 1 1 1
11 10 10 11 10 9 8 8 8 8 8 5 5 4 4 4 3 3 3 4 4 3 2 2 2 2 2 1 1 1 1 2
12 10 10 12 10 10 9 8 8 10 7 5 6 5 4 4 3 3 3 2 2 2 2 2 1 1 2 1 1 1 2 1
12 11 15 9 7 7 8 8 7 7 7 6 5 5 4 3 3 3 2 2 2 2 2 2 1 1 1 1 1 2 2 2
14 13 11 10 9 9 9 9 7 7 6 6 5 5 5 3 2 2 2 2 2 1 1 1 1 1 1 1 1 2 2 2
13 15 15 10 8 6 7 10 6 6 6 6 6 8 5 3 2 2 2 1 1 1 1 1 1 1 1 2 2 2 2 2
14 14 12 8 6 6 11 11 6 6 6 6 7 6 4 3 3 2 2 2 1 1 1 1 1 1 1 2 2 1 1 1
13 14 15 8 8 9 7 6 5 5 5 6 5 5 5 4 4 3 2 2 2 2 2 1 1 1 2 2 1 1 1 1
10 11 8 7 7 6 5 5 5 5 4 5 5 5 5 4 4 3 3 3 2 2 2 2 1 1 2 1 1 1 1 2
9 9 8 8 7 6 5 5 4 3 4 4 5 5 5 4 4 3 3 2 2 2 3 3 2 2 2 1 1 1 2 2
8 7 7 7 7 6 5 4 4 3 4 4 4 5 4 4 4 3 2 2 2 3 3 3 2 2 1 1 1 2 2 2
9 6 7 6 5 5 5 5 4 4 4 4 5 5 4 5 4 4 4 3 3 3 3 2 2 2 1 1 1 1 1 2
6 4 5 4 4 4 4 4 4 3 4 5 4 4 4 4 4 4 4 3 3 3 3 2 2 3 2 1 1 1 2 1

GFSFLT2_con_lsi_027.txt.gz
Lid_Strength_Index
6 6 5 7 9 6 9 9 10 9 8 6 5 5 4 4 4 3 3 3 3 3 2 2 2 2 1 2 1 1 1 1
7 6 6 6 6 9 9 12 12 10 9 9 7 6 5 4 4 3 3 3 3 3 2 2 2 1 1 1 2 1 1 1
6 8 8 8 8 7 8 9 11 12 10 6 6 5 5 4 4 3 3 3 3 3 2 2 1 1 1 1 1 1 1 1
8 6 6 6 7 7 10 10 9 9 8 5 5 4 4 4 3 3 2 2 3 2 2 2 2 2 2 1 1 1 1 1
10 7 7 8 7 6 7 7 9 10 9 5 5 4 4 4 3 3 2 2 2 2 2 2 2 2 2 1 1 1 1 1
11 9 7 9 8 7 7 10 9 9 8 6 5 5 4 4 3 3 2 3 2 2 2 2 2 2 2 1 1 1 1 1
8 7 7 8 8 8 8 7 9 8 8 6 5 5 4 3 3 3 3 3 2 2 2 1 2 2 2 1 1 1 1 1
9 8 8 9 7 8 7 7 7 7 7 5 4 4 4 3 3 3 3 3 2 2 2 2 2 2 1 2 1 1 1 2
12 9 9 11 8 7 7 6 7 8 6 4 5 5 4 4 3 3 3 2 3 3 2 1 2 1 1 1 1 1 1 1
11 10 15 8 6 6 7 6 5 6 5 5 4 4 3 3 3 3 2 2 2 3 2 1 2 1 1 1 1 1 2 2
12 12 10 8 7 7 8 8 6 6 5 5 4 4 4 3 2 2 2 2 1 1 1 1 1 1 0 1 1 2 2 2
11 13 14 8 6 6 6 10 5 5 5 5 4 7 5 4 3 3 2 2 1 1 1 1 1 1 1 1 1 2 2 2
12 12 9 6 5 4 11 12 6 5 5 5 6 5 4 3 3 3 2 2 1 1 1 1 0 1 1 1 2 1 1 1
12 13 13 6 6 9 7 6 6 5 5 6 5 4 4 4 3 3 3 2 2 2 2 1 1 1 2 2 1 0 1 1
10 10 6 5 6 5 5 6 5 4 4 4 4 4 4 4 4 3 3 2 2 2 2 1 1 1 2 1 0 1 1 1
9 7 7 6 6 6 6 6 5 5 4 3 4 4 4 4 4 3 3 3 2 2 2 2 2 1 1 1 1 1 1 1
8 7 7 7 6 6 6 5 5 4 3 3 3 4 4 4 4 3 3 3 2 2 3 3 2 2 1 1 1 2 2 2
9 5 5 6 5 5 6 6 4 4 4 3 3 3 4 4 3 3 4 3 3 3 2 2 2 2 1 1 1 1 2 2
6 4 4 4 4 5 5 5 4 4 4 4 3 3 3 4 3 4 3 3 3 3 3 2 3 2 1 1 1 1 2 2

GFSFLT2_con_lsi_030.txt.gz
Lid_Strength_Index
6 5 6 8 9 7 10 9 11 10 8 6 5 5 5 4 4 4 4 3 3 3 3 3 2 2 2 2 2 2 1 1
6 5 6 7 6 10 9 13 13 11 10 10 7 6 5 5 4 4 3 3 3 3 3 2 2 2 2 2 2 2 1 1
7 8 8 8 8 8 8 9 12 13 10 6 7 6 6 5 4 4 4 3 3 3 3 2 2 2 2 2 2 2 1 1
9 6 6 7 8 8 10 11 10 10 10 5 5 5 5 4 4 3 3 3 3 3 3 3 2 2 2 2 2 2 1 1
10 8 7 8 7 7 7 8 10 11 10 5 5 5 4 4 4 4 3 3 3 3 3 3 2 2 2 2 2 1 1 1
12 10 8 9 8 7 8 10 10 9 8 6 6 5 4 4 4 3 4 3 3 3 3 3 2 2 2 2 1 1 1 2
8 7 7 8 8 8 8 8 10 8 8 7 6 5 4 4 4 4 4 3 3 3 3 3 3 2 2 2 2 1 2 2
10 8 8 9 8 8 8 7 8 7 7 5 5 4 4 4 4 4 4 3 2 2 1 1 2 3 2 2 2 1 2 2
13 9 9 11 8 8 7 7 7 9 6 5 5 5 5 4 4 4 4 3 2 1 2 1 2 2 2 2 1 2 2 2
12 11 16 9 6 6 7 6 6 6 5 5 5 4 4 3 3 3 3 2 1 3 2 1 1 2 1 2 2 2 2 2
13 13 10 9 7 7 8 7 5 6 5 5 4 4 4 3 3 2 2 2 2 2 1 1 2 1 2 2 2 2 2 2
11 14 15 9 6 5 5 10 6 5 5 5 5 7 7 4 4 3 3 3 3 2 2 1 -0 0 1 2 2 3 2 2
12 13 11 8 6 5 11 13 6 6 6 5 7 6 5 3 3 3 3 2 2 2 2 1 1 1 2 1 2 2 2 1
11 12 15 7 7 10 8 6 6 5 5 6 5 4 4 4 4 3 3 3 2 2 2 1 -0 1 2 2 1 1 1 2
10 10 6 6 7 6 5 7 7 6 5 5 4 4 4 4 4 4 3 3 2 3 2 1 0 1 2 2 1 1 1 2
9 8 8 7 6 6 6 6 7 7 6 4 5 4 4 4 4 4 3 3 3 3 3 3 2 2 1 1 -0 0 1 2
8 7 7 7 6 7 6 6 7 7 7 5 4 4 4 4 4 4 4 3 3 3 3 3 2 2 1 1 1 1 1 2
9 6 6 6 6 6 7 6 6 7 6 5 4 3 3 4 4 4 4 3 3 3 3 3 2 2 2 1 1 2 2 2
7 5 5 5 5 5 6 5 5 5 5 5 4 4 3 3 3 4 3 3 3 3 3 2 2 2 1 1 1 1 2 1

GFSFLT2_con_lsi_033.txt.gz
Lid_Strength_Index
7 7 7 10 11 10 14 13 15 13 12 10 9 8 8 6 5 5 5 4 4 4 3 3 3 3 2 2 2 2 2 1
7 7 7 9 9 12 12 16 16 13 12 12 9 9 8 8 6 5 5 4 4 4 3 3 2 2 2 2 2 2 2 1
9 9 10 10 11 10 12 13 16 16 13 9 9 8 8 8 6 5 5 5 4 4 3 3 2 2 2 2 2 2 2 1
12 8 7 8 10 10 12 14 13 14 13 8 8 7 7 7 6 5 4 4 4 4 3 3 3 2 2 2 2 2 2 1
14 11 9 9 9 9 11 12 13 16 14 7 7 7 6 6 7 6 5 4 4 4 4 3 3 3 2 2 2 2 2 2
15 13 11 11 9 9 10 12 12 13 12 9 8 7 7 6 6 5 5 4 4 4 4 3 3 3 2 2 2 2 2 2
10 10 9 9 9 9 10 11 12 12 11 10 9 8 7 6 6 6 5 5 4 4 4 3 3 3 2 2 2 2 2 2
13 9 10 10 9 9 9 9 10 10 11 7 7 6 6 6 6 6 6 5 5 4 4 4 3 3 3 2 2 2 2 2
16 11 10 13 10 9 9 8 9 11 10 8 8 7 7 6 6 7 7 7 6 5 5 4 3 3 3 2 2 2 2 2
15 13 18 11 8 7 8 8 7 8 7 7 7 7 6 6 6 7 6 5 6 7 7 6 4 2 2 2 2 2 2 2
16 15 13 10 9 9 10 11 8 9 7 6 6 7 7 5 5 5 5 4 4 4 4 4 4 4 2 3 2 3 3 2
14 17 18 13 10 7 7 15 8 8 8 7 7 12 10 6 5 5 4 4 4 3 3 3 3 3 4 3 3 3 3 2
15 15 14 11 9 7 14 14 8 8 7 7 9 8 6 5 5 4 4 4 3 3 4 3 3 3 4 3 4 3 2 2
14 15 18 10 10 12 9 9 8 8 8 7 7 6 6 5 5 5 5 4 3 4 4 4 3 3 4 4 3 2 2 2
13 13 10 9 10 9 8 9 9 9 8 6 7 7 6 6 5 5 4 4 4 4 4 3 3 3 4 3 3 3 3 3
12 10 11 10 8 9 8 9 9 9 8 6 7 7 8 7 6 5 4 4 4 4 4 4 3 3 3 3 2 3 3 3
12 10 10 10 8 8 9 8 8 8 8 7 7 7 8 8 5 5 5 4 4 4 4 4 3 3 3 2 3 3 3 3
14 11 11 11 9 8 9 9 8 7 7 7 7 8 8 9 5 5 4 4 4 4 4 3 3 3 2 2 2 3 3 3
11 9 10 9 9 8 8 8 7 7 7 8 7 8 7 8 4 4 4 4 4 4 4 3 3 3 2 2 2 3 4 3

GFSFLT2_con_lsi_036.txt.gz
Lid_Strength_Index
8 7 8 11 12 12 17 16 17 15 15 12 10 10 7 7 6 6 5 5 4 4 3 3 3 3 2 2 2 2 2 1
9 8 8 9 10 15 17 18 18 15 16 14 12 11 11 7 7 6 5 5 4 4 3 3 3 2 2 2 2 2 1 1
11 10 11 11 11 13 13 16 16 18 14 11 11 11 10 7 6 6 5 5 4 4 3 3 2 2 2 2 2 2 2 1
13 11 9 9 12 12 13 16 15 15 13 9 8 8 8 9 6 5 5 5 4 4 3 3 3 3 3 2 2 2 2 1
15 14 12 13 10 11 13 14 14 14 14 9 9 8 7 8 7 5 5 4 4 4 4 3 3 3 3 2 2 2 2 2
18 15 13 14 12 11 11 13 14 13 13 11 10 9 9 8 7 5 5 5 4 4 4 3 3 3 3 2 2 2 2 2
15 13 12 12 11 10 12 11 12 12 13 11 10 8 8 7 7 5 5 5 5 4 4 3 3 3 3 2 2 2 2 2
16 11 11 11 10 9 10 10 11 12 12 11 8 8 7 7 6 6 6 5 5 4 4 4 3 3 3 2 2 2 2 2
18 13 11 14 11 10 10 10 10 12 11 8 8 8 8 9 7 7 6 5 5 4 4 3 3 3 3 2 2 2 2 2
18 14 18 12 10 9 10 10 9 10 9 8 8 7 7 6 6 6 6 7 8 5 4 3 3 2 2 2 2 2 2 2
18 16 14 12 12 11 12 12 9 10 8 8 7 7 8 6 5 6 5 5 5 5 6 6 3 2 2 2 2 2 3 2
17 18 19 13 11 7 8 15 11 9 9 8 7 12 10 6 5 5 4 4 4 5 5 4 6 4 3 3 3 3 3 2
15 16 14 12 10 8 15 13 10 10 9 8 10 8 7 6 6 4 4 4 4 4 4 4 5 4 5 4 3 2 2 2
14 17 18 10 11 14 12 10 11 10 9 9 9 9 7 6 6 5 5 4 4 4 4 3 3 3 4 4 3 3 2 2
15 14 11 9 11 10 10 11 10 10 9 9 10 11 11 7 7 6 5 5 5 4 4 3 3 3 4 3 3 3 3 3
14 12 12 10 10 10 10 11 9 9 11 9 11 10 12 11 6 6 6 5 4 5 4 4 3 3 3 3 3 3 3 3
15 14 12 11 11 11 11 10 9 8 8 8 10 11 11 12 10 5 4 4 4 5 4 4 3 3 3 2 3 4 4 3
17 14 14 14 11 11 11 11 9 9 9 8 9 10 8 9 8 6 4 4 4 4 4 4 3 3 2 2 2 3 4 3
12 11 11 11 11 11 11 10 9 9 9 9 8 8 7 7 6 5 4 4 4 4 4 4 3 3 3 2 3 3 4 5

GFSFLT2_con_lsi_039.txt.gz
Lid_Strength_Index
8 8 8 11 13 11 16 18 17 14 15 13 11 7 7 7 6 6 5 5 4 4 3 3 3 3 2 2 2 2 2 1
9 8 8 9 10 14 16 18 18 17 16 15 13 11 8 8 7 6 5 5 4 4 3 3 3 2 2 2 2 2 1 1
11 11 12 12 12 12 12 16 16 19 14 13 12 11 10 7 6 6 5 5 4 4 3 3 2 2 2 2 2 2 2 1
14 11 11 10 12 15 14 16 18 17 14 10 10 10 10 8 6 5 5 5 4 4 3 3 3 3 3 2 2 2 1 1
15 14 12 14 11 13 13 15 16 15 13 10 9 9 10 10 6 5 5 5 4 4 4 3 3 3 3 2 2 2 2 2
19 17 15 16 14 12 14 16 15 13 11 10 10 10 9 10 8 5 5 5 5 4 4 3 3 3 3 2 2 2 2 2
16 16 16 16 16 14 15 13 14 13 13 11 11 10 8 7 8 8 5 5 5 4 4 3 3 3 3 2 2 2 2 2
17 14 15 16 13 12 12 12 13 13 13 12 9 8 8 7 8 6 6 5 5 4 4 4 3 3 3 3 2 2 2 2
20 14 13 14 13 12 11 11 12 13 12 9 10 9 9 8 7 6 5 5 5 4 4 3 3 3 3 3 2 2 2 2
20 15 18 14 11 11 11 10 10 10 10 9 9 8 7 7 7 7 5 5 4 4 3 3 3 2 2 2 2 2 3 2
20 16 13 12 12 13 13 12 10 11 9 8 8 7 8 6 6 6 6 6 5 3 3 3 3 2 2 3 3 3 3 2
19 18 20 13 11 10 9 15 11 10 12 9 8 12 10 6 5 5 5 4 6 5 4 3 3 2 3 3 3 3 3 2
17 17 14 11 10 10 16 15 11 11 11 11 10 8 7 7 8 6 5 4 4 4 6 6 5 3 3 3 3 2 2 2
15 17 19 10 11 15 13 11 11 10 10 11 11 11 8 8 8 7 6 4 4 4 4 3 3 3 4 4 3 2 2 2
15 15 10 9 10 11 11 11 12 10 11 10 11 11 11 10 8 8 6 6 5 4 4 3 3 3 4 4 3 2 3 3
15 13 13 10 10 11 11 11 11 10 10 10 11 11 9 9 7 6 7 6 5 4 4 5 4 3 3 4 4 3 3 3
15 14 12 11 11 11 11 11 11 11 10 10 10 8 8 7 6 6 6 6 5 5 4 4 4 4 4 3 2 4 4 3
16 13 13 13 11 10 12 11 10 11 10 9 9 9 8 8 7 6 6 5 5 5 5 4 4 3 3 3 3 3 4 5
12 10 10 10 11 10 11 11 10 10 9 9 9 9 8 9 8 8 8 6 4 4 5 4 4 4 3 4 4 4 4 5

GFSFLT2_con_lsi_042.txt.gz
Lid_Strength_Index
10 9 9 12 13 11 15 17 17 13 14 12 10 9 7 7 7 6 6 5 5 4 3 3 3 2 2 2 2 2 1 1
10 9 9 10 10 14 15 19 20 16 16 13 12 11 8 8 7 6 5 5 4 4 3 3 2 2 2 2 2 2 1 1
11 12 11 11 12 12 12 15 17 19 16 11 11 9 9 7 7 6 6 5 4 4 3 3 2 2 2 2 2 2 1 1
14 10 10 12 12 12 14 16 17 16 14 10 10 9 9 9 6 6 5 5 4 4 3 3 3 3 2 2 2 2 1 1
16 12 12 13 11 12 14 12 14 16 15 9 10 9 9 10 8 5 5 5 4 4 4 3 3 3 3 2 2 2 1 1
18 15 15 16 15 12 14 14 14 13 12 10 8 9 8 9 10 7 5 5 4 4 4 3 3 3 3 2 2 2 2 2
13 14 15 15 16 16 16 15 14 13 12 10 9 9 10 8 8 8 6 5 5 5 4 4 3 3 3 2 2 2 2 2
15 14 15 16 14 15 14 14 14 13 14 9 9 7 8 8 7 8 7 6 5 4 4 4 3 3 3 3 2 2 2 2
19 15 14 17 14 12 12 11 12 14 11 9 9 9 9 8 7 8 6 7 5 4 4 3 3 3 3 3 2 2 2 2
18 17 19 13 10 9 11 12 11 10 9 9 9 8 7 6 7 7 6 5 4 4 4 3 2 2 2 2 2 2 2 2
19 18 14 12 11 12 13 13 11 11 11 10 8 7 8 6 5 6 5 5 4 3 3 3 3 2 2 3 3 3 3 2
17 19 20 14 11 9 10 15 12 11 11 12 8 13 10 8 6 5 5 4 4 3 3 3 3 2 3 3 3 3 3 2
17 17 15 11 10 10 15 15 11 11 11 11 11 10 10 7 6 5 4 4 4 4 4 3 2 2 3 3 3 2 2 2
15 17 19 10 11 14 13 11 11 11 11 11 9 8 9 8 7 5 5 4 4 4 4 3 2 3 3 3 2 2 2 2
15 14 12 10 11 11 10 12 12 13 11 10 9 9 9 8 8 8 6 5 4 4 4 3 3 3 3 3 2 2 2 2
14 13 12 10 11 11 11 11 11 11 11 10 9 8 8 10 9 8 8 7 6 4 4 5 3 3 3 3 2 2 3 2
14 13 12 11 11 11 10 10 11 11 11 10 10 9 9 10 10 10 9 7 6 6 5 5 4 4 3 3 3 3 2 2
16 12 13 12 11 10 11 11 11 11 11 11 10 9 9 9 9 8 9 8 6 4 4 4 4 3 3 2 2 2 3 3
12 10 10 10 9 9 10 10 10 10 10 12 10 9 8 9 8 9 8 6 7 5 4 3 3 3 2 3 3 2 2 3

GFSFLT2_con_lsi_045.txt.gz
Lid_Strength_Index
8 8 8 9 11 9 12 11 13 11 9 7 6 6 5 6 5 6 5 4 4 3 3 3 2 2 2 2 1 1 1 1
8 7 7 8 7 12 11 16 16 12 11 10 8 7 6 6 6 5 5 4 4 3 3 2 2 2 1 1 1 1 1 1
10 9 10 9 10 9 10 11 14 14 12 7 7 7 6 6 5 5 5 4 4 3 3 2 2 2 2 1 1 1 1 1
13 10 8 9 11 9 13 14 12 12 11 6 6 5 5 5 5 4 4 4 4 3 3 3 2 2 2 2 1 1 1 1
15 11 8 10 10 9 9 9 13 14 12 6 5 5 5 5 4 4 4 4 4 3 3 3 3 2 2 2 2 1 1 1
16 13 10 12 10 10 10 12 12 12 10 8 7 6 5 5 5 5 4 4 4 3 3 3 3 2 2 2 1 1 1 1
11 11 11 11 12 12 13 10 12 11 10 8 7 6 5 4 4 5 5 4 4 4 3 3 3 2 2 2 1 1 1 2
12 10 10 12 11 12 12 11 10 9 9 7 6 5 5 5 6 6 5 4 4 3 3 3 3 3 2 2 2 1 2 2
14 10 11 14 12 12 11 9 9 10 8 7 8 8 8 7 6 6 6 5 5 3 3 3 3 2 3 2 1 2 2 1
14 13 19 10 8 9 10 10 9 8 8 8 8 7 6 6 6 6 5 5 4 4 3 3 2 2 2 2 2 2 2 2
16 17 14 12 10 10 11 12 8 9 8 8 7 7 7 6 7 5 5 4 4 3 2 2 2 2 2 2 2 2 2 2
15 18 20 14 9 7 8 14 9 8 9 8 7 11 9 7 7 5 4 4 4 3 2 2 2 2 2 2 2 3 2 2
15 17 16 10 8 8 15 14 11 10 10 8 9 8 7 7 6 5 4 4 3 2 3 2 2 2 3 3 3 2 1 1
16 18 19 10 9 12 10 10 10 10 10 8 9 9 9 9 9 7 5 4 3 3 3 2 2 2 3 3 2 1 1 1
15 15 13 10 10 9 9 11 11 11 11 9 10 11 10 11 11 9 6 4 3 3 3 2 2 2 3 2 2 2 2 2
14 13 12 10 9 9 9 10 10 10 10 10 10 10 11 11 10 11 9 5 3 3 4 3 2 2 2 2 1 1 2 2
13 12 11 10 10 9 9 9 10 10 10 11 11 10 11 10 9 9 10 10 5 4 4 3 2 2 2 1 1 2 2 2
14 11 11 11 9 8 9 10 10 11 11 10 11 10 10 9 8 8 8 9 8 5 3 3 3 3 3 2 2 2 2 2
11 10 10 10 9 9 9 9 10 10 10 11 10 9 9 9 8 8 7 7 8 7 6 3 3 3 3 1 1 2 2 3

GFSFLT2_con_lsi_051.txt.gz
Lid_Strength_Index
6 5 6 7 9 7 9 9 11 9 8 6 5 5 5 5 5 5 4 3 3 3 2 2 2 2 1 1 1 1 1 0
6 6 5 7 6 10 9 13 14 11 9 9 7 6 5 5 5 5 4 3 3 3 2 2 2 1 1 1 1 1 1 0
7 8 8 7 8 8 8 9 12 13 10 6 6 5 5 4 4 4 3 3 3 3 2 2 1 1 1 1 1 1 1 1
8 6 5 6 7 7 11 12 10 10 10 5 5 4 4 4 4 3 3 3 3 2 2 2 2 2 1 1 1 1 1 1
10 8 6 8 7 7 7 8 11 12 10 5 5 5 4 4 3 3 3 3 3 3 3 2 2 2 2 1 1 1 1 1
12 10 8 9 8 7 8 10 10 10 9 6 5 5 4 4 3 3 3 3 3 3 2 2 2 2 2 1 1 1 1 1
9 9 9 9 9 8 9 8 10 9 9 7 6 5 4 3 3 3 3 3 3 3 3 2 2 2 2 1 1 1 1 1
10 9 9 10 9 9 9 8 8 8 9 6 6 5 5 4 4 4 3 3 2 2 2 2 2 2 2 2 1 1 1 1
13 9 10 11 9 9 9 8 8 9 7 6 7 6 5 4 4 3 3 3 3 2 2 2 2 2 2 2 1 1 1 1
14 10 16 9 7 7 8 8 7 7 6 5 6 6 5 4 4 4 4 3 3 2 2 1 1 1 1 1 1 1 1 1
16 14 10 9 7 8 10 10 7 7 6 5 4 6 6 4 4 4 3 3 3 2 2 1 1 1 1 1 2 2 2 2
12 15 17 9 6 6 6 12 6 5 6 5 4 7 6 4 4 4 3 3 3 2 2 2 2 1 1 2 2 2 2 2
14 14 11 6 6 6 14 10 6 6 5 4 5 5 3 4 4 3 3 3 2 2 3 2 1 1 2 2 2 2 1 1
13 15 17 7 7 11 7 7 9 6 4 4 4 5 5 4 4 4 4 3 3 3 3 2 1 2 2 2 1 1 1 1
12 12 7 6 7 6 7 9 9 6 5 4 5 5 5 6 6 5 6 4 4 3 2 1 1 2 2 2 1 1 1 2
12 9 8 8 8 7 7 8 6 6 5 4 5 5 6 7 8 8 7 7 7 4 3 3 2 1 1 1 1 1 2 2
12 10 11 9 7 8 7 6 7 6 5 5 4 5 7 7 8 8 8 9 8 7 5 3 2 2 1 1 1 2 2 2
13 11 10 10 8 7 7 7 7 6 7 6 6 6 6 7 8 9 9 8 9 7 7 6 6 6 5 4 1 2 2 2
11 9 10 9 9 7 7 7 7 7 8 7 5 6 5 7 7 8 8 8 8 8 7 6 7 6 5 4 2 2 3 2

GFSFLT2_con_lsi_054.txt.gz
Lid_Strength_Index
6 5 6 8 9 7 10 9 11 10 8 6 5 6 5 6 6 7 5 4 4 3 3 3 2 2 2 2 2 1 1 1
6 5 6 7 6 10 10 14 15 11 10 10 7 6 6 7 6 6 5 5 4 3 3 2 2 2 1 1 2 1 1 1
7 8 8 8 9 9 9 10 13 14 11 6 6 6 5 7 6 5 5 5 5 4 2 2 2 2 2 2 2 2 1 1
9 6 6 7 8 8 12 13 11 11 11 6 5 5 5 4 4 5 5 5 5 5 4 2 2 2 2 2 2 1 1 1
10 8 6 8 7 7 8 8 11 13 11 6 5 5 4 4 4 3 5 5 4 4 4 3 2 2 2 2 2 1 1 1
12 10 9 9 8 8 8 10 10 10 9 7 7 7 6 5 4 3 3 5 5 4 4 3 2 2 2 2 1 1 1 1
9 9 9 9 9 8 9 9 10 9 9 7 7 7 6 5 5 4 4 3 3 3 4 4 3 2 2 2 1 1 2 2
11 9 9 10 9 9 8 8 8 8 9 7 6 6 6 5 5 5 4 4 3 3 3 3 3 3 2 2 2 1 2 2
13 10 10 12 9 9 9 8 8 9 8 8 8 8 7 6 7 6 4 5 3 3 3 3 3 2 2 2 1 2 2 2
14 11 18 10 7 7 8 8 7 7 6 7 9 8 8 7 7 6 6 6 4 3 2 2 3 2 2 2 2 2 2 2
16 15 12 9 8 8 9 9 7 7 6 5 7 8 9 7 6 6 6 5 3 2 2 2 2 2 2 2 2 2 2 2
13 16 17 9 6 5 6 11 6 6 7 7 5 9 9 7 7 5 4 3 3 2 2 2 2 2 2 2 2 3 2 2
15 15 11 7 5 5 13 11 6 6 6 6 7 6 5 4 6 3 3 3 2 3 3 2 2 2 3 2 3 2 1 1
14 15 17 7 7 10 8 6 6 6 6 6 5 5 5 4 3 3 4 3 3 3 3 2 2 2 3 3 2 1 2 2
13 13 7 6 7 5 5 6 6 5 5 5 5 5 5 4 4 4 4 3 3 3 3 2 2 2 3 2 2 1 2 2
12 8 8 7 7 7 6 6 5 4 5 5 6 6 5 4 4 5 4 5 5 4 4 3 2 2 2 2 1 2 2 2
12 10 10 9 8 7 7 6 6 4 4 5 5 5 5 5 6 6 6 6 5 5 5 6 5 3 2 2 2 2 2 2
13 10 11 10 8 8 8 7 5 5 5 5 4 5 4 5 5 5 6 6 7 7 7 7 7 6 4 3 3 2 3 2
9 8 8 9 8 8 8 7 5 5 6 6 5 4 4 4 4 5 5 5 7 8 8 7 9 8 7 6 4 2 2 2

GFSFLT2_con_lsi_057.txt.gz
Lid_Strength_Index
8 7 8 10 12 10 14 12 15 13 11 9 8 8 7 7 6 6 6 5 5 4 3 3 3 2 2 2 2 2 1 1
8 7 7 9 9 14 13 17 18 14 13 12 10 9 8 8 7 7 6 5 5 4 3 3 2 2 2 2 2 2 1 1
10 12 11 11 12 13 13 14 17 16 14 9 9 8 8 8 7 6 6 5 5 4 3 3 2 2 2 2 2 2 1 1
13 10 9 10 13 13 16 16 14 15 14 7 8 7 7 7 6 6 5 5 4 4 4 3 3 2 2 2 2 2 1 1
14 13 11 11 11 13 14 15 17 17 13 8 8 7 6 7 6 6 5 5 5 4 4 4 4 3 2 2 2 2 1 1
16 14 12 12 11 10 14 17 17 15 14 12 9 8 8 6 7 6 6 5 5 5 4 4 4 3 2 2 2 2 2 2
12 10 10 11 11 10 12 13 16 14 13 11 10 9 8 7 7 7 7 5 5 5 4 4 3 3 3 2 2 2 2 2
12 11 10 11 10 10 10 10 11 11 12 12 11 10 10 10 10 9 9 7 7 6 5 4 3 4 4 3 2 2 2 2
16 11 11 14 11 10 10 9 10 12 11 10 11 11 11 11 10 9 9 9 7 7 4 4 4 3 3 5 2 2 2 2
16 14 20 11 8 8 9 9 8 8 9 9 9 10 10 10 10 9 7 7 5 5 3 3 3 3 3 3 3 2 2 2
17 17 13 11 9 10 11 11 8 9 8 7 7 9 11 8 8 7 7 7 4 5 3 3 3 3 3 4 4 5 2 2
15 18 19 12 8 6 8 14 8 7 8 8 8 11 11 9 9 8 7 7 4 4 3 3 3 3 3 3 3 4 4 2
15 17 14 9 8 6 14 14 8 7 8 8 10 9 7 8 9 8 7 6 3 3 3 3 2 2 3 3 3 2 2 2
15 17 18 7 8 13 9 8 8 8 8 8 8 8 7 7 8 7 7 6 3 4 3 3 2 3 3 3 2 2 2 2
13 13 8 7 8 7 7 8 8 8 7 7 8 8 7 6 5 6 4 4 3 3 3 3 2 3 3 3 2 2 2 2
12 9 9 9 8 7 7 7 7 6 6 7 8 7 8 6 5 4 4 5 4 4 4 4 4 4 2 2 3 3 3 3
11 10 9 9 9 9 8 8 7 6 6 6 6 6 6 5 4 4 4 4 4 5 5 5 5 5 3 4 4 4 3 3
13 9 10 10 8 8 9 9 8 7 6 4 4 5 4 5 4 4 4 4 4 5 6 6 6 7 7 6 5 4 3 3
8 7 7 7 7 8 8 9 8 7 6 5 4 5 5 4 4 4 3 4 5 5 6 7 8 8 8 8 7 6 4 3

GFSFLT2_con_lsi_060.txt.gz
Lid_Strength_Index
10 10 10 11 13 12 15 16 16 14 12 10 8 8 8 7 7 6 6 5 4 3 3 3 3 2 2 2 2 2 1 1
10 10 10 10 10 14 15 18 18 15 14 13 10 10 9 8 8 6 6 5 5 4 3 3 2 2 2 2 2 2 1 1
12 14 14 14 14 14 14 15 17 17 15 10 9 8 8 8 7 6 6 5 5 4 3 3 2 2 2 2 2 2 1 1
14 11 10 12 14 16 17 17 16 15 15 8 7 7 9 9 7 6 5 5 4 4 4 3 3 2 2 2 2 2 1 1
15 15 12 13 13 14 16 18 18 18 17 9 7 7 8 8 7 6 6 5 5 4 5 4 3 3 2 2 2 2 1 1
17 16 14 14 13 12 16 19 18 18 16 13 11 11 10 9 9 6 6 5 5 5 4 4 3 4 3 2 2 2 1 2
14 12 12 13 13 12 14 15 17 16 16 14 13 12 12 10 9 6 6 6 6 6 6 5 3 3 3 2 2 2 2 2
13 11 11 13 12 12 12 12 13 13 15 13 12 11 11 10 10 10 10 8 8 6 5 4 3 5 3 3 2 2 2 2
18 12 12 15 13 12 12 11 12 14 13 12 11 11 11 10 9 8 9 8 8 6 4 4 3 3 3 3 2 2 2 2
16 14 20 13 10 9 11 10 10 10 9 9 10 10 9 9 10 10 8 9 9 9 5 3 2 2 2 2 2 3 3 2
17 17 13 11 10 10 11 12 9 10 9 8 9 9 11 9 9 9 9 9 9 8 6 3 3 2 2 3 3 3 4 4
15 18 20 13 9 7 8 15 9 9 10 9 9 13 12 10 9 9 9 8 8 7 4 3 2 2 3 3 3 4 4 4
15 17 14 10 8 7 15 14 9 10 10 10 11 10 9 8 9 9 9 9 8 6 3 3 2 3 4 4 4 2 2 3
15 16 18 8 8 12 10 9 9 10 10 10 10 9 8 8 8 8 9 9 5 4 3 2 2 2 3 3 2 3 2 2
13 15 10 10 10 8 8 8 8 9 9 9 9 9 8 8 8 7 8 8 4 4 4 3 2 2 3 2 2 2 2 2
13 11 11 9 8 8 8 8 8 8 8 8 9 8 9 8 8 7 6 7 5 5 4 4 4 3 3 2 2 3 2 2
11 10 9 9 8 7 8 8 8 7 7 7 6 7 8 8 8 6 5 4 4 5 5 5 5 4 4 4 3 5 4 3
13 10 10 10 8 7 8 8 8 9 8 7 6 5 5 6 6 6 5 3 4 5 5 4 5 6 6 6 5 6 5 4
9 7 7 6 7 6 8 8 8 8 8 8 8 6 6 5 5 4 4 3 4 5 7 7 6 7 6 7 7 7 6 5

GFSFLT2_con_lsi_063.txt.gz
Lid_Strength_Index
10 11 11 13 14 13 16 17 16 16 13 11 8 8 7 8 7 7 6 5 5 4 3 3 3 2 2 2 2 2 1 1
11 11 11 13 11 15 16 19 19 16 15 15 11 10 9 9 8 7 6 5 5 4 4 3 2 2 2 2 2 2 1 1
13 14 15 15 16 17 16 16 18 18 16 10 10 10 10 8 7 7 6 5 5 4 3 3 2 2 2 2 2 2 1 1
15 12 11 12 16 18 18 18 17 16 15 10 9 9 10 8 7 6 6 5 5 4 4 3 3 3 2 2 2 2 1 1
17 15 13 14 14 16 18 19 20 19 17 11 11 11 10 7 7 6 6 5 5 5 4 4 3 3 3 2 2 2 1 1
18 17 15 15 14 14 17 19 19 18 17 14 13 12 12 10 8 6 6 7 6 5 4 4 4 4 3 2 2 2 2 2
15 13 13 14 13 13 15 16 18 16 16 14 13 13 11 10 8 8 9 10 9 7 6 4 3 4 3 3 2 2 2 2
14 12 12 14 13 13 13 13 13 14 15 13 12 11 10 9 9 10 10 10 9 10 9 6 3 3 3 2 2 2 2 2
18 13 13 16 13 13 13 13 13 15 14 10 11 11 10 11 10 11 10 11 11 10 9 9 3 3 3 2 2 2 2 2
18 16 21 14 10 9 12 11 11 11 10 10 10 10 10 10 11 10 10 11 11 11 10 8 5 3 2 2 2 2 2 2
19 20 15 12 11 12 12 13 11 12 11 10 10 10 10 9 9 11 10 10 10 10 10 9 5 2 2 3 2 2 2 2
16 19 19 13 10 8 9 15 10 11 12 12 11 14 11 9 9 9 10 10 9 9 9 7 4 2 3 3 3 3 2 2
15 16 15 11 9 8 16 14 9 9 11 12 12 10 10 9 9 8 9 10 9 9 8 5 4 3 3 3 3 3 3 2
16 17 20 10 10 14 11 9 8 8 9 10 10 10 9 9 9 9 9 10 10 9 9 5 4 4 3 3 2 2 2 3
16 16 12 10 11 8 8 9 9 9 8 8 9 10 8 8 8 8 8 9 9 9 9 6 4 3 3 4 3 2 2 2
14 12 11 11 10 9 7 8 8 8 7 7 8 8 8 7 7 7 7 8 9 9 9 7 3 2 3 3 4 4 4 3
11 11 10 8 8 8 8 7 8 7 7 8 7 7 7 6 6 5 5 5 6 8 8 6 4 3 4 4 5 6 5 4
14 11 11 10 8 6 7 7 7 8 8 7 7 8 6 7 6 6 6 6 5 5 7 5 4 5 5 5 6 6 5 4
11 10 9 8 7 6 6 6 7 7 8 9 8 8 8 7 6 5 6 6 6 5 4 4 6 6 6 6 7 7 7 6

GFSFLT2_con_lsi_066.txt.gz
Lid_Strength_Index
11 12 12 13 15 14 16 18 17 16 13 10 8 10 10 9 7 7 6 5 5 4 3 3 3 2 2 2 2 1 1 1
12 11 12 13 13 15 16 19 19 17 15 15 11 11 12 11 8 7 6 5 5 4 4 3 3 2 2 2 2 1 1 1
14 15 16 15 16 17 16 17 18 18 16 11 11 10 12 8 8 7 6 5 5 4 3 3 3 2 2 2 2 2 1 1
17 13 12 13 16 17 17 17 18 17 15 12 12 12 12 9 7 6 6 5 5 4 3 3 3 2 2 2 2 1 1 1
18 16 14 15 14 17 18 20 20 18 17 11 11 11 10 10 10 10 7 5 5 4 4 4 3 2 2 2 2 1 1 1
18 17 16 16 14 14 17 19 19 18 16 14 13 12 9 9 11 11 11 11 9 7 6 3 3 2 2 2 2 1 1 1
15 13 14 14 14 14 16 16 18 17 15 14 13 12 10 9 11 11 13 11 11 10 9 9 5 3 2 2 2 1 2 2
15 13 13 14 13 13 13 14 15 15 15 12 11 10 10 10 10 10 11 11 12 11 10 9 8 6 3 2 2 1 2 2
19 14 14 16 14 13 13 13 13 16 13 11 12 11 11 11 10 11 11 10 11 11 11 10 9 7 4 2 2 2 2 2
18 18 21 15 11 10 11 11 11 11 12 11 11 11 11 9 11 11 11 11 10 10 10 10 9 6 3 2 2 2 2 2
19 22 16 13 12 12 13 12 10 12 12 11 11 11 10 9 10 11 11 10 9 9 9 9 9 6 3 2 2 2 2 2
19 19 19 14 11 10 10 15 11 10 11 11 11 15 12 10 9 10 9 9 10 9 9 10 10 6 4 3 2 3 2 2
17 17 15 11 10 9 16 15 11 10 10 10 12 11 10 9 9 9 9 8 8 8 9 9 9 8 5 4 3 2 1 1
16 18 21 10 11 14 13 11 10 10 10 10 9 9 9 9 9 9 8 7 7 8 9 9 9 8 6 4 2 1 1 1
17 17 12 10 11 10 9 10 9 9 9 9 9 9 8 9 9 8 7 7 7 8 8 9 8 8 8 5 2 2 2 2
15 13 11 10 9 8 8 9 8 8 8 8 9 8 8 8 8 7 7 6 6 7 7 8 8 7 7 5 3 2 3 3
11 11 11 10 9 8 8 7 7 6 7 8 8 8 8 7 7 6 6 6 6 6 7 7 7 7 7 6 4 4 4 4
15 11 11 11 8 7 7 7 6 6 7 6 7 8 8 8 7 7 6 6 6 6 6 7 8 7 7 6 3 5 5 5
11 10 10 8 7 7 7 6 5 5 6 6 7 7 8 8 8 7 6 6 6 7 6 6 7 7 6 5 5 6 7 6

GFSFLT2_con_lsi_069.txt.gz
Lid_Strength_Index
9 9 8 9 10 8 11 12 12 11 10 8 7 7 7 7 6 6 5 4 4 3 2 2 2 2 1 1 1 1 1 0
10 9 8 8 8 10 10 15 15 13 13 11 10 9 8 8 7 6 5 4 4 3 3 2 2 1 1 1 1 1 0 0
10 12 12 9 10 10 10 11 13 15 13 10 9 9 9 8 7 6 5 4 4 3 2 2 1 1 1 1 1 1 1 0
12 11 10 10 12 11 11 13 12 11 13 9 7 7 10 11 9 7 5 4 4 3 3 2 2 2 2 1 1 1 1 1
13 11 10 11 11 12 13 11 13 13 13 8 6 7 9 11 12 11 10 9 8 7 6 3 2 2 1 1 1 1 1 1
13 13 12 12 12 11 11 12 13 12 12 10 8 8 9 9 11 12 11 11 10 10 9 8 5 2 2 2 1 1 1 1
11 11 11 12 12 12 12 12 12 12 12 10 8 8 8 8 9 10 12 12 12 12 11 10 9 6 3 1 1 1 1 1
12 11 11 12 12 12 12 12 12 11 11 9 8 7 7 7 7 8 9 11 12 11 11 11 10 8 5 2 1 1 1 1
13 11 12 13 12 11 11 10 10 12 10 9 9 9 9 8 8 8 8 8 10 11 12 11 10 10 6 3 1 1 2 1
12 12 16 11 9 9 9 9 9 9 9 10 10 9 8 7 8 8 8 8 8 8 9 11 11 10 7 4 3 2 2 1
14 14 13 11 10 10 10 11 9 10 9 9 9 8 8 7 7 8 8 7 7 6 7 6 8 10 10 7 5 4 2 2
13 15 16 11 10 8 8 12 9 9 9 9 9 10 8 7 8 8 7 7 7 6 5 6 6 7 8 8 7 5 4 1
13 14 12 9 9 8 14 12 9 8 9 9 9 9 7 7 7 7 7 7 6 6 6 5 5 6 8 9 8 6 4 1
13 15 16 8 9 11 9 8 8 8 8 9 8 7 7 6 6 6 7 7 6 6 6 6 5 5 6 7 8 6 4 2
11 11 8 7 8 7 7 8 8 8 8 8 8 8 7 7 6 6 6 6 6 6 5 5 6 5 6 5 5 7 4 2
10 8 8 6 6 6 5 6 6 7 7 7 8 7 7 7 8 7 7 7 6 6 6 6 5 6 6 5 4 5 5 3
9 7 7 6 5 5 5 5 5 5 5 5 6 7 7 7 7 7 7 7 7 6 6 5 5 5 5 6 5 5 6 4
11 6 6 6 5 4 5 5 4 4 4 4 4 5 5 6 7 7 7 6 6 6 6 6 5 5 5 4 4 4 6 5
7 5 5 5 5 4 5 4 4 4 3 4 4 4 5 5 5 6 7 7 7 6 6 6 6 6 5 4 4 4 4 4

GFSFLT2_con_lsi_072.txt.gz
Lid_Strength_Index
7 6 6 8 10 6 9 9 10 10 9 7 6 7 6 6 5 5 4 4 3 2 2 2 1 1 1 1 1 0 0 -0
8 7 6 6 6 10 9 13 14 11 11 11 9 9 7 8 7 5 4 4 3 3 2 1 1 1 1 0 1 0 0 -0
8 8 8 7 8 8 8 9 12 13 12 8 8 8 8 7 7 6 5 5 4 4 2 2 1 1 1 1 1 1 0 -0
9 9 8 7 8 7 10 11 9 10 12 6 6 7 9 10 10 9 9 8 7 7 7 3 2 1 1 1 1 0 0 -0
10 9 8 8 8 7 7 8 10 11 12 6 6 6 10 11 11 11 11 11 11 11 10 8 5 3 2 1 1 0 0 0
11 10 8 10 10 8 8 10 10 9 10 8 7 7 6 11 11 11 11 10 11 11 10 9 8 7 3 2 1 0 0 1
10 9 9 9 10 10 9 8 10 9 9 8 7 6 5 5 8 11 11 11 11 11 10 9 9 9 6 3 1 1 1 1
10 10 10 11 10 10 10 9 8 8 9 6 5 5 5 5 5 6 9 10 10 9 10 10 10 9 8 7 3 1 1 1
10 10 10 11 9 10 9 8 8 9 8 6 7 7 7 6 5 5 6 7 8 10 10 9 8 8 9 8 5 4 3 1
8 10 14 9 8 8 8 8 7 7 7 7 7 6 6 5 6 6 6 5 6 7 8 8 8 8 7 7 6 5 4 2
12 11 10 9 8 8 8 9 8 8 8 8 7 6 5 5 6 6 6 5 5 4 4 4 5 7 8 8 8 8 6 4
10 14 14 9 7 6 6 10 7 7 7 7 7 9 7 6 6 6 6 5 5 5 4 4 3 4 6 6 7 8 7 6
11 13 10 7 7 5 11 10 6 6 6 6 7 6 6 5 5 5 5 5 5 5 5 4 3 3 3 3 4 5 6 6
11 13 16 5 7 9 7 6 6 6 5 6 6 6 5 5 5 5 5 5 5 5 5 4 3 3 3 3 3 3 4 6
10 9 6 4 6 5 6 6 6 6 6 6 6 6 5 5 5 4 4 4 5 5 5 5 4 4 4 3 2 3 4 3
9 6 6 5 4 4 5 5 5 5 5 5 6 5 5 5 5 5 5 5 5 5 5 5 4 4 4 3 3 3 3 4
8 6 5 4 4 3 3 3 4 4 4 4 4 5 5 5 5 5 4 5 5 5 6 5 4 4 5 4 4 5 4 3
10 5 6 5 3 3 3 4 3 4 4 3 3 3 3 3 3 4 4 5 6 5 6 6 5 5 4 4 5 6 5 4
5 4 4 3 3 2 3 3 3 3 3 3 3 3 3 4 4 3 4 4 4 5 6 6 6 6 5 4 5 5 6 5

GFSFLT2_con_lsi_075.txt.gz
Lid_Strength_Index
5 5 6 8 10 6 9 8 10 10 9 7 6 7 6 6 5 4 5 4 4 3 2 3 2 1 1 1 1 0 0 0
6 6 6 7 6 10 9 13 13 10 11 10 9 8 7 7 6 6 5 5 5 4 3 2 2 1 1 0 1 0 0 0
6 7 8 7 8 8 8 9 11 13 12 7 9 8 8 8 7 7 7 6 5 6 4 3 3 2 1 1 1 1 0 0
8 6 6 6 7 7 10 11 9 10 12 6 7 7 7 10 10 9 9 10 8 7 6 6 5 3 2 1 1 0 0 0
10 8 6 7 7 6 7 7 9 11 12 6 7 7 9 10 10 10 10 10 10 8 9 9 6 4 3 2 2 1 0 0
11 9 7 8 8 7 7 10 9 9 11 8 7 7 10 10 10 9 10 10 10 11 9 9 8 7 5 4 1 1 1 0
8 8 7 8 8 8 8 8 9 10 10 8 7 6 6 9 9 10 10 10 10 10 10 9 8 8 8 6 4 2 1 1
9 9 8 9 9 8 7 8 7 8 9 6 5 5 5 5 7 9 8 10 9 9 9 9 9 8 8 7 5 3 3 1
11 9 10 11 9 8 7 7 7 9 8 6 6 5 5 5 4 6 7 8 8 7 7 7 7 7 7 6 5 5 4 3
10 9 14 9 8 7 7 7 6 7 6 5 5 5 4 3 4 5 5 5 6 6 7 7 6 6 5 5 5 6 5 6
11 11 9 8 7 8 8 9 6 6 6 5 5 4 4 4 5 5 5 4 4 4 4 4 5 5 5 5 5 5 5 5
10 13 13 9 6 5 5 11 5 6 6 7 6 8 6 5 5 5 4 4 4 3 3 3 2 2 4 5 5 5 6 5
11 12 9 6 6 4 11 10 5 5 5 5 5 5 6 5 5 4 4 4 4 4 3 3 2 2 2 2 2 4 4 4
10 12 16 5 6 8 7 4 4 4 4 4 4 4 5 5 5 5 5 5 5 5 5 4 3 3 3 2 1 1 1 3
9 10 6 4 5 4 3 4 4 4 4 5 5 4 4 4 4 4 4 4 4 5 5 4 4 4 4 3 2 2 2 2
8 6 6 4 3 3 4 4 4 4 4 5 5 4 4 4 4 4 3 3 3 3 4 4 4 4 4 4 3 3 3 3
7 5 5 4 3 3 4 4 4 4 4 4 4 4 4 3 3 4 3 3 3 4 4 3 3 3 3 3 4 5 4 4
10 5 5 5 3 2 3 3 3 3 3 3 3 3 3 3 3 3 3 3 4 3 4 3 3 3 3 3 4 5 5 5
5 3 3 3 3 2 3 3 2 2 2 3 2 2 3 2 2 2 2 3 3 4 3 3 3 4 4 4 5 5 6 5

GFSFLT2_con_lsi_078.txt.gz
Lid_Strength_Index
5 5 6 8 10 7 10 9 11 11 10 8 7 7 7 6 6 6 6 5 5 3 3 3 2 2 2 2 1 1 1 1
6 5 5 8 6 10 10 14 15 12 13 13 10 9 8 7 7 6 7 6 5 4 3 3 2 1 1 1 1 1 1 1
6 7 8 8 10 8 8 10 13 16 15 8 9 8 8 7 7 9 8 8 6 5 5 3 2 2 2 1 1 1 1 1
9 6 6 6 8 8 11 12 10 14 15 7 7 7 7 7 7 9 10 9 7 6 7 7 4 3 3 2 2 1 1 1
10 8 6 8 7 7 7 8 11 15 14 7 7 7 8 8 8 9 10 10 9 7 8 8 8 6 4 3 3 2 1 1
14 11 8 9 8 7 8 10 10 13 13 10 9 8 8 9 9 9 9 9 9 8 8 7 8 7 6 4 3 3 2 2
8 9 8 8 8 8 8 8 11 12 12 10 8 7 7 8 8 9 9 9 9 9 8 7 7 6 7 7 5 3 3 2
9 8 9 9 8 8 7 8 8 9 10 7 6 5 7 7 7 8 8 8 8 8 8 8 7 7 6 7 7 5 5 4
12 9 9 11 9 9 8 7 10 12 9 6 6 6 6 5 6 6 7 7 7 7 7 6 7 6 6 5 5 5 5 5
12 10 15 9 7 7 8 7 7 8 7 6 6 5 4 5 5 5 5 5 5 5 6 5 5 5 4 5 4 5 4 5
12 15 11 9 8 8 8 8 6 7 6 6 5 5 6 5 5 5 4 4 4 5 5 4 5 3 2 3 3 4 4 4
10 13 14 10 8 6 6 11 6 6 6 6 5 9 7 5 5 4 4 4 4 3 3 3 3 4 5 4 4 5 4 4
11 12 11 7 7 6 11 10 5 5 5 5 6 5 5 4 4 4 4 4 4 4 4 3 3 3 2 2 3 3 3 3
10 13 15 5 6 9 7 5 5 4 5 6 5 5 5 5 5 5 5 5 4 5 4 4 3 3 3 2 1 1 1 1
10 11 6 4 5 4 4 4 4 4 4 3 4 4 5 5 5 6 5 5 5 5 5 4 4 4 4 3 2 2 2 2
8 7 6 5 4 4 3 4 3 3 3 4 4 4 4 4 4 4 4 4 4 5 5 5 4 4 4 3 3 3 3 3
7 6 5 4 4 3 3 3 3 3 3 4 3 4 4 4 3 3 3 3 3 4 4 4 3 4 4 4 4 6 5 5
10 5 5 5 3 3 3 3 3 3 4 3 3 3 3 4 3 3 3 3 3 4 4 4 4 4 3 3 3 5 6 6
6 5 4 3 3 2 3 3 2 2 2 3 2 2 3 3 3 2 2 3 3 4 3 4 4 4 4 3 4 5 6 6

GFSFLT2_con_lsi_081.txt.gz
Lid_Strength_Index
6 7 8 11 12 10 13 13 15 15 14 10 9 9 8 8 7 7 6 5 5 4 3 3 3 2 2 2 2 1 1 1
7 7 7 10 9 13 13 18 17 17 16 16 12 10 9 10 10 9 7 5 5 4 4 3 2 2 2 1 2 1 1 1
8 10 11 11 12 11 12 13 16 19 18 11 11 9 11 11 11 10 9 8 6 5 5 5 3 2 2 2 2 2 1 1
12 8 7 10 11 11 14 15 14 16 17 9 9 8 9 10 10 10 9 9 8 8 6 5 4 3 3 3 3 3 2 2
13 10 10 11 10 12 12 13 14 17 17 8 8 8 8 10 10 10 10 10 9 8 8 7 6 4 3 4 3 2 3 2
15 13 11 12 11 11 13 15 15 14 14 11 9 10 9 9 9 10 10 10 9 9 7 7 7 7 6 4 3 3 2 3
10 9 10 10 11 10 12 12 14 14 14 11 9 9 9 9 9 10 9 9 9 9 8 7 7 7 7 6 5 4 3 3
12 10 10 11 10 9 10 10 12 11 13 8 7 8 9 9 9 9 10 9 8 8 8 8 7 7 6 7 5 5 5 5
15 10 10 13 11 10 10 9 10 14 11 8 8 7 9 8 8 9 9 9 9 9 9 9 9 7 7 6 6 6 6 6
15 13 18 11 8 9 9 8 8 9 8 7 7 6 7 7 8 8 7 7 7 8 7 7 7 7 6 5 5 5 5 5
16 17 13 10 9 10 10 10 8 8 7 7 7 8 9 7 7 7 7 7 8 8 6 6 6 5 5 5 5 5 6 5
14 17 18 12 8 7 7 13 7 7 7 8 7 11 10 7 6 7 7 7 7 6 5 5 5 5 5 5 5 6 5 6
14 16 13 8 7 7 13 13 7 7 7 7 9 9 7 7 7 6 6 7 6 6 6 6 5 5 5 4 5 4 6 6
14 16 17 7 7 11 9 7 7 7 7 7 7 7 7 6 7 7 7 7 6 7 7 6 5 6 6 6 5 4 4 4
13 13 8 6 7 6 5 7 6 7 6 6 6 7 7 8 8 7 6 6 6 7 7 6 5 6 7 6 5 5 5 5
11 9 8 7 5 5 5 6 5 5 5 6 6 6 6 7 7 8 7 7 7 7 7 7 6 6 7 6 6 7 8 7
10 8 7 6 5 5 5 4 5 4 5 5 4 5 5 5 5 6 6 6 7 7 8 8 7 7 7 7 8 9 9 9
12 8 8 7 5 4 5 5 4 5 5 4 4 5 4 5 5 5 5 5 5 6 6 6 6 6 6 7 7 8 9 9
8 6 5 5 4 3 4 4 4 4 4 4 4 4 4 4 5 3 5 4 6 6 6 6 6 7 6 6 7 7 9 9

GFSFLT2_con_lsi_084.txt.gz
Lid_Strength_Index
7 8 9 12 13 11 14 15 15 16 15 11 9 9 8 8 7 7 6 5 5 4 3 3 3 2 2 2 2 1 1 1
8 8 8 10 10 13 15 18 19 18 18 17 13 11 11 10 8 8 6 6 5 4 3 3 2 2 2 2 2 1 1 1
10 12 11 10 12 12 14 15 17 21 19 11 11 11 11 10 9 9 8 7 7 5 3 3 2 2 2 2 2 2 3 2
12 9 8 9 12 13 14 15 16 17 17 9 9 9 10 11 11 9 9 8 7 7 5 4 3 2 2 2 2 2 2 2
14 12 10 12 12 14 14 14 16 17 17 9 8 9 10 11 10 10 9 9 8 7 7 6 5 4 3 2 2 2 2 2
16 13 12 13 11 12 15 17 15 16 15 12 10 10 10 10 10 10 9 9 8 8 8 7 6 5 4 3 2 2 2 2
11 11 11 12 12 11 14 13 14 14 14 12 10 10 10 10 8 9 10 9 9 9 8 7 7 6 6 5 4 2 3 2
12 10 11 12 11 10 10 11 12 12 13 9 9 9 10 10 9 9 9 9 9 8 8 7 7 7 5 6 5 4 5 5
15 11 11 14 12 11 11 10 11 15 11 9 10 9 9 9 9 8 8 8 8 8 8 8 7 6 7 6 5 5 5 5
15 13 17 11 9 9 10 10 9 10 9 9 9 9 9 8 9 9 9 9 8 8 8 7 7 7 6 6 6 5 5 5
16 17 13 10 10 11 12 12 8 9 9 8 8 8 9 7 7 9 9 9 8 8 8 9 9 8 7 7 7 7 7 6
15 18 18 12 8 7 7 13 8 7 8 9 9 12 11 8 7 8 8 7 8 8 8 8 8 6 7 8 7 8 7 7
15 16 14 9 8 7 14 13 8 7 8 8 11 10 9 7 8 8 8 8 7 7 7 8 7 7 8 7 7 7 7 7
14 17 17 7 7 11 9 9 8 8 9 9 9 8 9 8 8 8 8 8 7 8 8 8 8 8 8 8 7 7 6 6
13 13 8 7 8 7 7 8 9 8 7 8 8 8 8 8 8 8 8 8 8 8 8 8 7 8 8 8 8 8 8 8
11 10 9 8 7 6 6 7 6 7 7 7 8 8 8 9 8 8 8 9 8 8 8 9 8 8 8 8 8 9 9 9
11 9 8 7 6 6 6 6 6 6 7 6 7 8 8 7 8 7 8 8 8 9 9 9 8 8 8 8 9 10 10 10
12 8 8 8 6 6 7 6 6 6 6 5 6 7 6 6 6 6 6 6 7 8 7 9 9 9 9 9 10 10 11 11
8 7 6 5 4 4 6 6 5 6 5 5 5 5 5 6 6 5 6 6 6 7 7 7 8 8 7 7 8 9 10 9

GFSFLT2_con_lsi_090.txt.gz
Lid_Strength_Index
9 10 9 12 16 14 16 17 17 17 15 11 9 9 8 8 7 7 6 5 4 4 3 3 3 2 2 2 1 1 1 1
9 10 10 11 10 14 15 18 20 19 17 16 13 11 9 9 8 7 6 5 4 4 3 3 2 2 1 1 2 1 1 1
11 13 13 11 13 13 14 15 19 21 18 12 11 10 10 9 7 7 6 6 5 4 3 3 2 2 2 2 2 1 1 1
14 11 10 12 13 13 15 16 16 17 16 9 9 10 9 9 8 7 6 6 5 5 4 3 3 2 2 2 2 1 1 1
15 13 12 13 13 14 14 14 17 17 15 9 9 10 10 10 8 8 7 7 6 5 5 4 3 3 2 2 2 2 2 2
16 15 14 14 12 12 15 15 15 15 15 12 11 11 11 11 10 8 7 7 7 6 5 5 4 3 2 2 2 2 2 1
12 12 12 12 12 12 14 14 15 13 14 12 10 11 11 11 9 8 8 7 7 7 6 6 5 5 3 3 3 1 1 1
13 11 11 12 11 10 12 12 13 13 14 9 11 11 11 10 10 10 9 8 7 7 7 6 6 5 5 5 4 3 3 2
15 13 11 14 12 12 12 11 12 15 12 9 11 10 10 10 10 10 9 8 7 8 8 7 8 6 6 5 4 4 4 4
15 14 20 12 9 9 11 10 10 10 9 9 10 10 10 9 9 9 8 8 8 8 7 7 6 6 7 7 7 7 6 6
16 17 14 11 10 11 11 12 9 9 9 10 10 10 10 9 8 8 7 7 7 7 7 7 7 8 8 9 8 9 9 8
15 16 17 13 9 7 8 13 8 8 9 9 10 13 11 9 8 8 8 8 8 8 8 8 9 8 9 9 10 10 10 9
15 16 13 10 8 7 13 12 8 7 8 9 9 9 9 8 9 8 9 9 8 9 9 9 9 9 10 10 11 10 9 9
16 16 17 8 8 11 10 8 7 7 7 8 9 9 8 8 8 8 8 8 8 9 9 8 8 8 9 10 9 9 9 9
13 13 10 9 8 7 8 7 6 7 8 8 9 9 8 8 8 8 8 8 8 9 9 9 9 9 10 9 9 9 10 10
11 10 9 8 7 7 6 6 6 7 7 7 7 8 8 8 8 8 8 8 8 9 9 9 9 9 9 9 9 10 10 10
11 10 9 7 6 6 6 5 5 6 5 6 7 8 7 8 8 7 7 8 8 8 9 9 9 9 9 9 10 11 11 10
12 9 9 8 7 6 6 6 5 5 6 5 5 7 7 7 8 8 8 8 8 8 8 9 9 9 9 10 10 10 11 11
9 8 8 6 5 5 6 6 5 6 5 6 5 5 6 6 6 6 6 7 7 8 8 8 9 9 9 9 9 10 10 10

GFSFLT2_con_lsi_093.txt.gz
Lid_Strength_Index
6 6 6 8 11 9 12 11 13 13 12 10 9 9 8 7 6 6 5 4 4 3 3 2 2 2 1 1 1 0 0 -0
6 6 7 7 6 11 11 16 16 15 15 12 11 11 9 8 8 6 5 4 4 3 3 2 2 2 1 1 1 1 0 0
7 8 8 8 9 9 9 11 14 15 14 10 10 9 9 8 7 7 6 5 4 4 3 2 2 2 2 1 1 1 1 0
10 8 8 7 9 9 11 13 12 12 12 8 8 8 8 8 7 6 5 5 4 4 3 3 2 2 2 2 1 1 0 1
11 9 7 9 8 8 9 10 13 12 12 8 8 8 7 7 7 7 6 5 5 4 4 3 2 2 2 2 1 1 1 1
12 11 9 11 10 9 9 10 12 11 12 11 9 9 8 8 7 7 6 6 5 5 4 4 2 2 2 2 1 1 1 1
9 9 8 9 10 10 9 9 11 11 10 10 9 8 7 7 8 7 6 6 5 6 5 5 4 3 2 2 1 1 1 1
11 9 9 9 9 10 10 11 11 11 11 8 7 7 8 7 7 7 6 6 6 6 5 5 5 4 4 4 3 1 1 1
13 10 10 12 10 9 10 9 10 11 10 8 8 7 7 7 6 6 6 6 6 6 7 6 7 5 5 4 4 4 4 3
12 11 15 10 7 7 9 9 8 9 8 7 7 6 6 6 5 6 6 5 5 5 6 7 7 7 7 6 6 6 6 5
13 13 11 9 9 9 9 9 8 9 8 7 6 6 7 6 5 5 5 5 4 4 6 7 8 7 8 8 8 8 8 7
11 13 15 10 7 6 6 10 7 7 7 7 6 10 8 6 5 5 5 5 5 5 6 6 7 8 9 9 10 10 10 9
12 12 10 7 6 5 12 10 6 6 6 6 7 6 5 5 5 5 5 5 6 5 7 8 7 7 8 9 10 10 9 8
11 12 14 6 6 9 7 5 5 5 5 5 6 6 5 5 5 5 5 5 5 5 5 5 6 7 8 8 8 8 8 8
10 10 7 5 6 4 5 5 5 5 4 4 5 6 5 5 5 5 5 4 4 4 5 5 5 5 6 7 6 7 6 7
9 8 7 6 4 4 4 4 4 4 4 4 5 5 5 5 5 4 4 4 4 5 5 6 6 6 6 6 6 6 6 7
9 7 6 5 4 4 4 3 4 3 3 3 4 4 5 5 5 5 5 4 4 4 5 5 6 6 6 7 7 7 7 7
10 5 6 6 4 3 4 4 4 4 4 3 3 3 3 4 5 5 5 5 4 4 4 5 5 6 6 6 6 7 7 7
6 4 4 4 3 3 3 3 3 3 3 3 3 3 3 3 3 3 4 4 5 5 4 5 5 5 5 6 7 7 8 7

GFSFLT2_con_lsi_096.txt.gz
Lid_Strength_Index
5 5 5 8 10 7 10 10 12 11 10 9 8 8 7 6 5 5 4 3 3 2 2 2 2 2 2 1 1 0 -0 -0
6 5 5 6 5 10 9 14 15 12 11 11 11 9 8 7 6 5 4 4 3 2 2 2 2 2 1 1 1 0 0 -0
6 7 7 7 8 7 8 9 12 14 12 8 8 8 9 8 7 6 5 4 3 3 2 2 2 2 2 1 1 1 0 -0
8 6 5 6 7 7 10 11 9 10 12 7 7 7 7 7 6 5 5 4 4 3 2 2 2 2 2 2 1 1 0 0
10 7 6 7 6 6 7 7 10 12 10 7 7 7 7 7 6 6 5 5 4 3 3 2 2 2 2 2 1 1 1 1
11 9 7 9 8 7 7 9 9 9 10 9 8 8 7 6 6 6 5 5 5 4 4 3 2 2 2 1 1 1 1 1
8 7 7 8 8 7 8 7 9 8 8 8 8 7 7 6 6 6 5 5 5 5 4 3 3 2 2 1 1 1 1 1
10 8 8 9 8 8 8 8 7 8 8 6 6 6 6 6 6 6 5 5 4 5 5 5 5 3 2 2 1 0 1 1
11 9 9 11 9 8 8 7 8 8 8 6 7 7 6 6 5 5 5 4 4 4 5 5 5 5 5 4 3 3 2 1
11 10 15 9 6 7 8 7 7 7 7 6 6 5 5 4 5 5 4 4 4 5 5 6 7 7 5 5 6 5 4 5
12 12 10 9 8 8 8 8 6 7 7 6 5 5 6 4 3 3 3 3 3 3 6 7 7 7 8 7 7 7 6 5
9 12 14 9 6 5 5 10 6 6 6 6 6 9 7 4 3 3 2 2 2 4 6 6 7 7 8 9 9 9 8 7
10 11 9 6 5 5 11 10 5 5 5 5 6 6 4 3 3 2 2 2 2 3 4 6 7 8 9 9 10 9 9 8
9 11 13 5 6 8 7 4 4 5 5 5 4 4 3 3 3 3 3 3 3 5 6 7 5 6 7 9 8 8 8 8
8 8 5 5 5 4 4 4 4 4 4 4 4 4 3 3 3 3 3 3 3 4 4 4 5 6 7 7 6 7 7 8
8 6 6 5 4 3 3 3 3 3 3 3 4 3 3 3 3 3 2 3 3 2 2 3 2 3 3 4 4 5 6 6
7 6 5 5 4 3 3 3 3 3 3 3 3 3 3 3 3 2 2 1 1 1 2 2 2 3 3 3 4 5 6 6
7 5 4 5 3 3 3 3 3 3 3 3 3 3 2 3 2 2 2 1 1 1 2 2 2 3 3 4 4 5 5 6
5 3 3 3 3 2 3 3 3 2 2 3 2 2 2 2 2 2 2 2 2 2 2 2 2 3 3 3 4 4 5 5

GFSFLT2_con_lsi_099.txt.gz
Lid_Strength_Index
5 5 5 7 10 7 11 10 15 12 11 9 6 6 6 6 5 5 4 4 3 3 2 2 2 1 1 1 1 0 0 -0
5 5 5 6 5 10 9 15 17 13 12 11 10 9 7 6 6 5 4 3 3 3 2 2 2 1 1 1 1 0 -0 -0
6 7 7 7 8 7 8 9 13 15 13 8 9 7 8 6 5 5 4 4 3 3 2 2 1 1 2 1 1 1 0 -0
8 5 5 6 7 7 10 11 9 10 15 6 7 7 6 7 6 5 4 4 3 2 3 2 2 2 2 2 1 1 1 0
10 7 6 7 6 6 7 7 9 11 12 6 7 7 6 7 6 5 5 4 4 3 3 3 3 2 1 1 1 1 1 1
12 9 7 8 7 6 7 9 9 9 11 9 8 8 7 7 6 6 5 5 4 4 3 3 2 2 2 2 1 1 1 1
7 7 7 7 7 7 8 7 9 8 9 8 7 7 6 6 6 6 5 5 5 4 4 3 2 2 1 1 1 1 1 1
9 8 7 8 7 7 7 7 7 7 9 6 6 5 6 6 6 6 5 5 5 4 4 4 3 2 2 1 1 1 1 1
13 8 8 10 8 7 7 6 6 8 8 6 6 6 6 6 5 5 5 5 4 4 4 4 5 3 3 2 1 1 1 1
11 11 14 9 6 6 7 7 6 6 6 6 6 5 5 4 5 5 4 4 4 3 4 5 6 6 5 5 3 2 2 2
14 15 11 9 8 7 8 8 6 6 6 6 5 5 5 4 3 4 3 3 3 2 4 6 7 8 7 7 7 7 5 4
10 14 15 12 6 5 5 10 5 5 6 6 5 9 7 4 3 3 3 3 3 3 6 7 7 7 9 9 7 9 9 7
10 10 13 7 5 4 10 11 5 5 5 5 6 6 4 3 3 2 2 2 2 3 6 7 7 8 8 8 10 9 8 8
9 14 13 5 5 8 6 4 4 4 4 5 4 4 3 3 3 3 3 2 2 2 4 6 6 7 9 8 7 8 8 8
8 10 5 4 5 4 3 4 4 4 4 4 4 4 3 3 3 3 2 2 2 3 3 4 4 3 8 8 7 7 7 7
7 6 5 4 3 3 3 3 3 3 3 3 4 3 3 3 3 3 2 2 2 2 3 3 4 5 4 4 4 5 6 7
7 5 5 4 4 3 3 2 3 3 3 3 3 3 3 3 3 2 2 2 1 2 3 3 2 2 3 5 4 5 5 5
6 4 5 4 3 3 3 3 3 3 3 3 2 3 2 3 2 2 2 1 1 1 1 1 1 1 1 1 2 2 3 4
5 3 3 3 3 2 3 3 2 2 2 3 2 2 2 2 2 2 1 1 1 1 1 1 0 1 1 1 2 2 3 3

GFSFLT2_con_lsi_102.txt.gz
Lid_Strength_Index
5 5 6 8 10 7 11 12 15 15 12 9 7 7 7 7 6 6 5 5 4 4 3 3 3 2 2 2 1 1 1 0
6 5 5 6 6 10 12 16 18 15 16 14 10 9 8 7 7 6 5 5 4 4 3 3 2 2 1 1 1 1 1 1
6 7 8 7 8 8 8 11 16 16 15 10 9 8 8 7 6 6 5 5 5 4 3 3 2 2 2 1 1 1 1 1
8 6 5 6 7 7 10 12 10 11 14 8 8 7 6 6 5 5 4 4 4 4 3 3 3 2 2 2 2 1 1 1
10 8 6 7 7 7 7 8 11 12 16 8 8 7 7 7 6 6 5 5 4 4 4 3 3 2 2 2 1 1 1 1
11 11 8 8 8 7 7 10 9 9 11 10 9 8 7 7 6 6 5 5 4 4 4 3 2 2 2 2 1 1 1 1
8 7 8 8 8 7 8 8 9 8 10 9 8 8 7 6 6 6 6 5 5 5 4 3 3 2 2 2 1 1 1 1
10 8 8 9 8 7 7 7 7 9 10 8 8 7 7 6 6 6 6 5 5 4 4 4 3 3 2 2 2 1 1 2
13 10 9 11 9 8 7 6 7 12 9 7 8 8 7 6 6 6 6 5 5 4 4 4 4 3 3 2 1 1 1 1
14 12 15 10 6 7 8 6 7 7 8 7 7 6 6 5 5 5 5 5 4 4 4 5 5 5 5 5 2 2 2 2
17 16 13 10 9 8 9 10 6 7 6 7 7 5 6 4 4 4 4 4 3 3 4 6 7 6 6 7 7 5 5 4
12 16 17 12 8 6 6 14 7 6 6 6 6 9 8 4 4 3 3 3 3 4 5 7 7 7 8 7 8 9 9 8
14 16 13 8 7 5 11 12 5 5 5 6 8 6 5 4 4 3 3 3 3 5 7 7 7 7 9 9 9 8 8 7
11 14 16 6 6 9 8 4 5 5 5 5 4 4 4 4 4 4 3 3 2 4 6 6 6 7 8 8 8 7 8 8
9 12 6 5 5 4 4 4 4 4 4 4 4 4 4 4 4 3 3 3 2 3 5 5 5 6 7 7 6 6 6 7
7 7 6 4 4 3 3 3 3 3 3 3 4 3 4 3 3 3 3 2 2 3 3 4 3 3 5 5 5 6 6 6
7 6 5 4 4 3 3 3 3 3 3 3 3 3 3 3 3 3 3 2 2 2 2 2 2 3 4 3 2 3 4 4
7 5 5 5 3 3 3 3 3 3 3 2 2 3 2 4 3 3 3 2 2 2 2 1 1 2 1 1 2 3 4 4
5 3 3 3 3 2 3 3 2 3 2 3 2 2 2 3 3 3 2 2 2 2 1 1 1 1 0 -0 -0 0 1 -1

GFSFLT2_con_lsi_105.txt.gz
Lid_Strength_Index
6 6 8 10 13 9 15 15 18 16 14 11 9 9 7 7 7 7 6 5 5 4 3 3 3 2 2 2 2 1 1 1
7 7 7 10 8 13 14 20 21 18 17 16 12 11 9 8 7 6 5 5 4 4 3 3 2 3 2 2 2 1 1 1
8 10 10 11 12 12 12 13 18 20 17 11 10 9 9 8 7 6 5 5 4 4 3 3 2 2 2 3 2 2 1 1
11 7 7 9 11 12 14 15 14 14 17 9 8 8 7 7 6 6 5 5 4 4 3 3 3 2 2 2 2 1 1 1
12 10 8 10 10 11 12 12 14 15 17 8 8 8 7 7 7 6 5 5 5 4 4 4 3 3 2 2 2 1 2 1
15 12 9 11 9 9 11 14 13 14 14 12 9 9 8 8 7 7 6 5 5 5 4 3 3 3 2 2 2 2 2 1
10 9 9 9 9 9 11 11 13 13 13 12 11 9 8 7 7 7 6 6 5 5 4 4 3 3 2 2 2 1 2 2
12 10 10 11 9 9 9 9 11 12 14 9 8 7 8 7 7 7 6 6 5 4 4 4 4 3 2 2 2 1 2 2
17 12 12 13 11 10 11 10 9 13 11 9 9 8 8 7 7 7 6 5 5 4 6 6 5 5 5 2 1 2 2 2
17 14 19 12 8 8 10 10 9 9 9 8 8 7 6 6 6 6 5 5 5 5 6 6 6 6 6 4 2 2 2 2
17 18 14 11 10 10 11 12 8 10 9 8 7 7 7 5 5 5 5 4 5 5 6 7 6 6 6 7 6 6 6 5
15 18 19 13 8 6 7 15 8 8 8 8 8 12 9 5 4 4 4 5 5 6 6 7 7 7 7 8 8 8 8 6
15 16 14 9 7 6 15 13 7 7 7 8 9 8 6 5 5 4 5 5 5 6 7 7 7 8 8 8 8 7 7 7
14 17 17 6 7 10 9 7 7 7 7 7 6 6 5 5 4 4 5 5 6 7 7 7 7 8 8 9 7 7 7 7
12 13 8 6 7 6 5 6 6 6 6 5 6 5 5 5 4 4 4 4 5 6 6 6 6 7 8 8 8 7 8 8
10 9 8 6 5 5 4 5 5 5 4 5 5 5 5 5 4 4 3 3 4 5 7 7 7 7 8 7 6 7 8 8
10 8 6 6 5 5 4 4 4 4 4 4 4 5 5 4 4 4 3 3 4 4 5 5 5 6 6 6 7 7 6 7
11 8 8 7 5 4 4 4 4 4 4 4 4 4 4 4 4 3 3 3 3 3 4 4 4 5 5 4 4 5 6 6
8 5 5 5 4 3 4 4 3 4 4 4 4 4 4 4 4 4 3 3 3 3 2 3 2 3 4 4 3 4 4 4

GFSFLT2_con_lsi_108.txt.gz
Lid_Strength_Index
8 7 9 12 14 11 16 17 18 16 14 11 8 9 8 7 6 6 6 5 5 4 3 3 3 2 2 2 2 2 1 1
8 8 8 10 9 14 15 21 22 18 17 16 12 10 9 8 7 6 6 5 5 4 4 3 3 3 2 2 2 1 1 1
10 11 12 11 12 13 12 15 19 21 18 11 10 9 9 8 7 6 6 5 5 4 3 3 2 2 3 2 2 2 1 1
12 9 8 10 12 13 15 15 15 15 17 8 8 8 8 8 7 6 5 5 4 4 4 3 3 2 2 3 2 2 2 1
13 11 9 11 11 12 14 14 14 16 16 8 8 8 8 7 7 6 5 5 5 4 4 4 3 3 2 2 2 1 1 1
15 13 11 12 10 10 14 16 16 13 13 11 10 10 9 8 7 6 6 5 5 5 4 3 3 3 2 2 1 1 1 1
11 11 10 11 11 10 12 13 13 12 13 12 10 10 8 7 7 7 6 6 5 5 4 4 3 3 2 2 2 2 2 2
13 10 10 12 11 11 11 12 13 13 14 9 8 8 8 8 7 7 6 6 5 5 4 4 3 3 2 2 2 2 2 2
17 12 11 15 12 12 11 11 12 14 12 9 9 9 8 8 7 7 6 6 5 5 4 4 3 3 3 2 2 2 2 2
16 14 19 13 9 8 10 10 10 10 9 8 9 8 7 6 6 6 6 5 5 6 6 6 5 5 3 2 2 2 2 2
17 17 14 12 10 10 11 12 9 10 9 8 7 7 7 5 5 5 5 5 6 6 7 6 5 6 5 5 4 4 3 2
15 18 19 13 9 7 8 15 8 8 9 9 8 12 9 5 5 6 6 6 6 6 6 6 7 6 7 8 7 7 6 6
16 17 14 9 7 6 15 13 8 7 8 8 9 8 6 4 5 5 6 6 6 6 7 7 6 6 7 7 8 8 7 7
15 18 18 7 8 11 9 7 7 7 6 7 6 6 5 5 5 5 6 6 6 7 7 8 7 7 8 8 7 7 7 6
13 13 9 7 8 6 6 7 7 7 6 5 6 6 5 5 4 4 5 6 6 7 7 7 7 7 8 9 8 8 7 8
11 9 8 7 6 5 5 7 6 5 5 5 6 5 5 5 4 4 4 6 6 7 8 8 8 8 8 8 8 9 9 9
11 9 7 6 6 6 6 5 4 5 5 5 5 5 5 5 4 4 4 4 5 5 6 6 7 8 8 8 8 9 8 8
12 8 8 7 5 4 5 4 4 4 5 5 4 5 4 4 4 4 4 4 4 5 5 6 6 7 6 6 6 7 8 8
8 6 6 5 4 4 5 4 4 4 4 5 4 4 4 4 4 4 3 3 3 4 4 4 5 5 5 5 6 6 7 6

GFSFLT2_con_lsi_111.txt.gz
Lid_Strength_Index
8 8 9 12 15 11 16 17 19 17 14 10 9 9 8 7 6 7 6 5 4 4 3 3 3 2 2 2 2 2 1 2
9 8 9 10 9 15 15 20 24 18 17 16 12 11 9 8 8 7 6 5 4 4 3 3 2 2 2 2 2 1 1 2
10 12 12 13 13 14 13 15 20 21 18 11 10 9 9 8 7 7 6 5 5 4 3 3 2 2 2 2 2 2 2 2
12 10 9 12 13 13 15 16 16 17 16 9 9 8 8 8 7 6 5 5 4 4 4 3 3 3 2 2 2 1 1 1
13 11 10 11 11 13 15 16 15 17 15 9 8 8 8 8 7 6 5 5 5 4 4 4 3 3 3 3 3 2 2 2
16 14 12 13 11 11 15 17 17 14 12 11 10 10 8 8 7 6 6 5 5 5 4 4 3 3 3 2 1 1 1 1
13 11 11 12 12 12 13 14 16 14 13 11 10 10 9 7 7 7 6 6 5 5 4 4 3 3 2 2 2 1 2 2
14 10 10 12 11 11 12 12 12 13 13 10 8 8 8 8 7 7 6 6 5 5 4 4 3 3 2 2 2 2 2 2
16 12 11 15 12 12 12 11 12 15 13 9 9 9 8 8 7 7 6 6 5 5 4 4 3 3 3 2 2 2 2 2
15 14 18 12 9 9 10 10 10 10 9 9 9 8 7 6 6 6 6 5 5 5 5 5 4 3 2 2 2 2 2 2
16 17 14 11 10 10 12 12 9 10 9 8 7 7 8 5 5 5 5 6 6 5 6 5 5 4 2 3 2 2 2 2
15 18 19 12 9 7 8 15 9 8 9 9 8 12 10 5 5 6 6 6 5 5 6 6 5 5 4 3 3 3 2 2
16 17 14 9 8 7 15 13 8 8 8 8 9 8 6 5 5 6 5 6 6 7 7 6 6 6 7 7 7 5 5 4
15 18 18 7 8 12 9 9 7 7 7 7 7 6 5 5 5 6 6 6 6 7 8 7 6 6 7 8 7 6 5 5
13 13 10 8 8 7 6 7 7 7 6 6 6 6 5 5 5 5 6 6 6 6 7 7 7 7 8 8 8 7 7 7
11 10 9 7 6 6 5 6 5 5 5 5 6 5 5 5 4 4 5 6 6 6 7 8 8 8 8 8 8 9 9 9
10 9 8 6 7 6 6 5 5 5 5 5 5 5 5 5 5 4 5 6 6 7 8 8 8 8 8 8 9 9 9 10
11 9 9 7 6 5 5 5 5 5 5 5 4 5 4 5 4 4 5 4 4 6 6 6 8 8 8 7 7 7 8 9
8 7 7 6 5 4 4 5 5 5 4 5 4 4 4 5 5 5 5 4 4 4 5 5 6 6 6 6 5 6 7 8

GFSFLT2_con_lsi_114.txt.gz
Lid_Strength_Index
8 8 9 13 15 12 16 18 19 17 14 10 9 9 8 8 7 7 6 5 5 4 3 3 3 2 2 2 2 1 1 1
9 8 9 11 9 15 16 21 23 18 17 16 12 11 9 9 8 7 6 5 4 4 3 3 2 2 2 1 2 1 1 1
11 12 13 12 14 13 13 16 20 21 17 11 11 9 10 8 7 6 6 5 5 4 3 3 2 2 2 2 2 1 1 1
12 10 9 11 12 13 15 16 16 16 16 9 8 8 8 8 7 6 5 5 4 4 3 3 3 2 2 2 2 1 1 1
13 11 9 12 12 14 15 15 16 17 15 9 8 8 8 8 7 6 5 5 5 4 4 4 3 3 2 2 2 1 1 1
15 13 11 13 12 12 15 17 16 14 14 12 10 9 8 8 7 6 6 5 5 5 4 4 3 3 2 2 1 1 1 1
11 11 11 12 12 12 14 15 16 14 14 12 10 10 8 7 7 7 6 6 5 5 4 4 3 3 3 2 2 1 2 2
13 10 11 12 11 12 12 13 13 13 15 9 8 8 8 8 7 7 6 6 5 5 4 4 3 3 2 2 2 1 2 2
15 12 12 15 13 12 12 11 12 15 12 9 9 9 8 8 7 7 6 6 5 5 4 4 3 3 3 2 2 2 2 2
15 13 19 12 9 9 11 10 10 10 9 9 8 8 7 6 6 6 6 5 5 4 4 4 3 2 2 2 2 2 2 2
16 16 14 12 10 10 12 12 9 10 9 8 7 7 8 5 5 5 5 5 5 5 5 5 4 3 2 2 2 2 2 2
15 18 19 13 9 7 8 15 8 8 8 8 8 12 9 5 5 5 5 5 6 5 5 6 5 3 2 3 2 3 2 2
16 17 14 9 7 6 15 13 8 7 8 8 9 8 6 5 5 5 5 5 6 6 7 7 5 5 5 5 6 4 3 3
15 17 17 7 8 11 9 7 7 7 7 7 7 6 6 5 5 5 6 5 6 7 7 6 5 7 8 8 6 5 5 5
12 13 9 8 7 6 6 7 7 7 6 6 6 6 5 5 6 6 6 6 6 6 7 7 6 6 7 8 7 7 6 6
11 10 8 7 7 6 5 6 5 5 5 5 6 5 5 5 5 6 5 6 6 6 7 8 8 8 8 8 8 9 9 8
11 9 8 6 5 6 5 5 5 4 4 5 5 5 5 5 4 5 5 5 6 6 7 7 7 7 7 8 8 9 9 9
11 8 8 8 6 4 5 5 5 5 5 4 4 5 4 4 4 4 4 4 5 5 5 6 7 7 7 7 7 8 8 7
8 7 7 6 5 4 5 5 5 4 4 5 4 4 4 4 4 4 4 4 4 4 4 5 7 7 7 6 6 6 6 6

GFSFLT2_con_lsi_117.txt.gz
Lid_Strength_Index
8 7 8 11 12 9 14 14 16 15 12 9 8 8 8 7 6 6 5 4 4 3 3 2 2 2 1 1 1 1 0 0
7 7 7 9 8 13 13 17 18 15 15 14 11 10 8 8 7 6 5 5 4 3 3 2 2 1 1 1 1 1 0 0
8 9 10 10 11 11 11 13 15 16 13 9 9 9 9 8 7 6 6 5 4 4 3 2 2 1 1 1 1 1 1 0
9 7 7 8 9 9 13 14 13 14 13 8 8 7 7 7 6 6 5 5 4 4 3 2 2 2 2 1 1 1 0 0
11 9 8 9 9 9 10 10 12 14 12 7 7 7 7 7 6 5 5 5 4 4 4 3 2 2 2 1 1 1 0 1
12 11 10 12 11 10 10 11 11 11 10 9 9 9 8 7 6 5 5 5 5 4 4 3 2 2 2 2 1 1 1 1
9 10 10 11 11 11 11 11 11 10 12 11 10 9 8 7 6 6 6 5 5 4 4 3 3 3 2 2 2 1 1 1
11 9 9 11 10 11 11 11 11 11 12 8 8 7 7 7 7 6 6 5 5 4 4 4 3 3 2 2 1 1 1 1
12 10 11 13 11 10 11 10 11 13 10 8 9 9 8 7 6 6 6 5 4 4 4 3 3 3 3 2 1 1 1 1
12 11 17 10 8 8 9 9 9 9 9 9 8 7 7 6 6 6 5 5 5 4 3 3 2 2 2 2 2 2 2 2
13 14 12 11 9 10 10 9 8 9 9 8 7 7 7 5 5 5 5 4 4 4 3 3 2 2 2 2 2 2 2 2
13 15 16 11 8 6 7 12 7 8 8 8 7 11 9 5 4 4 5 5 5 5 4 4 4 3 2 3 2 2 2 2
13 14 12 8 7 6 13 11 7 7 7 7 8 7 6 4 4 4 4 4 5 6 6 5 4 4 3 3 4 3 2 2
12 14 15 6 7 11 8 6 6 6 6 7 6 6 5 4 4 4 4 5 4 5 6 6 6 6 6 6 4 4 4 3
11 10 7 6 6 5 5 6 6 6 6 6 6 5 5 5 4 4 3 4 4 5 6 6 6 6 8 8 6 5 5 5
10 8 7 6 5 5 5 5 5 4 5 4 5 4 4 4 4 3 3 3 3 4 6 6 7 7 7 7 7 7 8 7
9 7 6 6 5 5 4 4 4 4 4 4 4 4 4 4 3 3 3 3 3 4 4 5 5 6 6 6 5 6 7 8
8 6 6 5 4 4 5 5 4 4 4 3 3 4 3 3 3 3 3 2 3 4 4 4 5 5 4 4 4 5 5 6
6 4 5 4 4 3 4 4 4 3 3 4 3 3 3 3 3 3 2 2 2 2 3 3 4 4 3 2 3 3 4 4

GFSFLT2_con_lsi_120.txt.gz
Lid_Strength_Index
6 6 6 8 11 7 10 9 12 10 10 8 6 6 6 5 5 5 4 3 3 2 2 2 1 1 1 1 1 0 0 -0
6 6 6 8 7 11 10 15 15 11 12 11 9 8 7 6 6 6 4 3 3 2 2 2 1 1 1 0 1 0 -0 -0
6 8 8 9 10 9 9 10 14 15 12 8 8 7 7 6 5 5 5 5 3 2 2 2 1 1 1 1 0 0 0 -0
8 6 5 6 8 8 11 12 10 11 14 7 7 6 6 6 6 5 5 4 4 2 2 2 2 1 1 1 1 0 -0 -0
9 7 6 8 7 7 8 8 15 13 12 6 7 6 6 6 6 5 5 4 4 4 3 2 3 2 1 1 1 0 0 0
11 10 10 10 9 8 8 11 10 10 10 7 9 8 7 6 5 5 5 5 5 4 3 3 2 2 1 1 0 0 0 0
7 7 8 9 9 9 10 9 11 9 9 8 8 9 7 6 5 5 5 5 5 5 4 3 3 3 1 1 1 1 1 1
9 7 8 9 8 8 9 9 9 9 9 7 7 7 7 6 6 6 5 5 4 4 4 4 3 3 2 1 1 1 1 2
11 8 9 11 8 8 8 8 8 11 8 7 8 8 8 6 6 6 5 5 4 4 3 3 3 3 3 2 1 1 2 1
11 11 16 8 6 6 7 7 7 7 7 7 8 7 6 5 6 6 5 5 4 4 3 3 2 2 2 2 1 1 2 2
12 13 10 9 8 8 9 9 6 6 7 8 7 7 7 5 5 5 5 4 4 3 3 2 2 2 2 2 2 2 2 2
10 14 15 10 7 6 6 11 5 5 7 7 7 10 9 5 4 4 5 4 4 3 3 2 3 2 2 3 2 2 2 1
11 13 11 7 6 5 12 11 6 6 6 7 9 7 6 4 4 4 4 4 5 5 5 4 3 2 3 2 3 2 1 1
10 13 14 5 6 10 7 5 5 5 5 7 6 5 5 4 4 4 4 4 4 5 5 5 5 4 6 5 3 2 2 2
9 10 6 5 5 4 4 6 5 6 5 5 5 5 4 5 4 4 3 4 4 5 6 7 6 6 7 7 5 5 5 5
9 7 6 5 4 4 4 5 4 4 4 4 5 5 5 4 4 4 3 3 3 3 5 6 6 7 7 7 7 7 7 7
7 6 5 5 5 4 4 4 4 3 3 4 4 4 4 4 4 3 2 2 2 3 3 4 5 5 5 5 5 7 8 8
7 5 5 5 4 3 4 4 4 3 4 3 3 3 3 3 2 2 2 2 2 3 4 4 4 4 3 3 3 4 5 5
5 3 4 3 3 3 3 3 3 3 3 3 2 2 2 3 2 3 2 1 2 2 2 2 2 2 1 0 0 1 3 3

GFSFLT2_con_lsi_123.txt.gz
Lid_Strength_Index
5 5 5 7 9 6 9 9 10 11 10 7 7 6 5 5 5 5 4 4 4 3 2 2 2 1 1 1 1 0 0 0
5 5 5 6 7 11 9 13 14 11 11 10 9 7 6 6 6 5 4 4 4 3 2 2 1 1 1 1 1 0 0 0
6 7 8 7 8 9 9 11 14 14 13 11 7 7 7 6 5 5 4 4 3 4 2 2 1 1 1 1 1 1 0 0
8 6 5 6 8 8 11 12 12 12 14 8 6 5 6 6 5 5 4 4 4 3 3 2 2 1 1 1 1 1 0 0
9 7 6 7 6 6 8 9 12 13 12 7 7 5 5 6 5 5 4 4 4 3 3 3 2 2 1 1 1 1 0 0
10 9 7 9 8 8 10 10 11 10 10 9 8 7 6 5 5 5 5 5 5 4 4 3 2 2 1 1 1 0 0 1
7 7 7 7 9 11 13 10 10 9 10 8 9 7 7 6 5 6 6 6 5 5 4 3 2 2 1 1 1 1 1 1
8 7 7 8 7 10 10 8 9 8 9 7 6 6 7 6 6 6 5 5 4 4 4 4 3 2 2 2 1 0 1 1
11 7 8 10 8 8 8 7 9 11 8 8 7 8 7 7 6 6 5 4 4 4 4 3 3 2 2 2 1 1 1 1
10 8 14 8 7 8 8 6 8 8 6 7 7 7 7 6 6 6 6 5 4 4 3 3 2 2 2 2 2 2 1 1
11 12 10 8 8 8 9 8 5 6 6 6 6 7 7 5 5 5 5 4 4 3 3 3 3 2 2 2 2 2 2 2
9 13 18 9 9 7 8 10 5 5 5 6 6 10 9 5 4 4 4 4 4 3 3 3 2 2 3 3 3 3 2 2
10 11 11 6 6 5 12 11 6 5 5 6 9 7 5 4 4 3 3 4 4 5 4 5 3 2 3 2 3 2 1 1
10 12 14 5 6 8 7 5 6 6 6 7 5 5 5 4 4 4 4 3 4 5 6 5 4 4 5 4 2 1 2 1
9 10 6 4 5 4 4 5 5 5 5 5 5 5 4 5 4 4 3 4 4 6 7 7 6 6 7 6 5 4 4 4
8 7 6 5 4 3 4 4 4 4 4 4 4 4 4 4 4 4 3 3 3 5 6 7 7 6 6 6 6 6 6 6
6 5 5 5 4 4 4 3 4 3 3 3 4 4 4 4 4 3 3 2 2 3 4 5 5 5 6 6 6 8 8 7
8 5 7 5 4 3 4 4 3 3 3 3 3 3 3 4 3 3 3 2 3 4 4 4 3 4 2 3 3 4 5 6
5 3 4 3 3 3 3 3 3 3 3 3 2 2 2 3 2 3 2 2 2 2 2 1 2 1 1 0 -0 1 3 2